<?xml version="1.0" encoding="UTF-8" standalone="yes"?>
<gpx xmlns="http://www.topografix.com/GPX/1/1" version="1.1">
  <trk>
 <name>03</name>
 <desc>03</desc>
<trkseg>
<trkpt lat="45.5987500" lon="8.2141000">
<time>2017-08-08T14:24:24.887Z</time>
</trkpt>
<trkpt lat="45.5989000" lon="8.2139100">
<time>2017-08-08T14:24:24.887Z</time>
</trkpt>
<trkpt lat="45.5991000" lon="8.2135400">
<time>2017-08-08T14:24:24.887Z</time>
</trkpt>
<trkpt lat="45.5992200" lon="8.2131400">
<time>2017-08-08T14:24:24.887Z</time>
</trkpt>
<trkpt lat="45.5993600" lon="8.2128500">
<time>2017-08-08T14:24:24.887Z</time>
</trkpt>
<trkpt lat="45.5994900" lon="8.2123100">
<time>2017-08-08T14:24:24.887Z</time>
</trkpt>
<trkpt lat="45.5998000" lon="8.2117600">
<time>2017-08-08T14:24:24.887Z</time>
</trkpt>
<trkpt lat="45.5998900" lon="8.2113700">
<time>2017-08-08T14:24:24.887Z</time>
</trkpt>
<trkpt lat="45.6001200" lon="8.2111100">
<time>2017-08-08T14:24:24.887Z</time>
</trkpt>
<trkpt lat="45.6002700" lon="8.2109300">
<time>2017-08-08T14:24:24.888Z</time>
</trkpt>
<trkpt lat="45.6003800" lon="8.2110600">
<time>2017-08-08T14:24:24.888Z</time>
</trkpt>
<trkpt lat="45.6004200" lon="8.2113400">
<time>2017-08-08T14:24:24.888Z</time>
</trkpt>
<trkpt lat="45.6003800" lon="8.2118000">
<time>2017-08-08T14:24:24.888Z</time>
</trkpt>
<trkpt lat="45.6005600" lon="8.2121400">
<time>2017-08-08T14:24:24.888Z</time>
</trkpt>
<trkpt lat="45.6007600" lon="8.2122900">
<time>2017-08-08T14:24:24.888Z</time>
</trkpt>
<trkpt lat="45.6009100" lon="8.2122000">
<time>2017-08-08T14:24:24.888Z</time>
</trkpt>
<trkpt lat="45.6010400" lon="8.2119600">
<time>2017-08-08T14:24:24.888Z</time>
</trkpt>
<trkpt lat="45.6011400" lon="8.2117100">
<time>2017-08-08T14:24:24.888Z</time>
</trkpt>
<trkpt lat="45.6013400" lon="8.2114200">
<time>2017-08-08T14:24:24.888Z</time>
</trkpt>
<trkpt lat="45.6015600" lon="8.2111800">
<time>2017-08-08T14:24:24.889Z</time>
</trkpt>
<trkpt lat="45.6018500" lon="8.2111200">
<time>2017-08-08T14:24:24.889Z</time>
</trkpt>
<trkpt lat="45.6020700" lon="8.2111100">
<time>2017-08-08T14:24:24.889Z</time>
</trkpt>
<trkpt lat="45.6022700" lon="8.2108800">
<time>2017-08-08T14:24:24.889Z</time>
</trkpt>
<trkpt lat="45.6024400" lon="8.2109800">
<time>2017-08-08T14:24:24.889Z</time>
</trkpt>
<trkpt lat="45.6025300" lon="8.2111400">
<time>2017-08-08T14:24:24.889Z</time>
</trkpt>
<trkpt lat="45.6026900" lon="8.2112200">
<time>2017-08-08T14:24:24.889Z</time>
</trkpt>
<trkpt lat="45.6029200" lon="8.2111400">
<time>2017-08-08T14:24:24.889Z</time>
</trkpt>
<trkpt lat="45.6030900" lon="8.2107300">
<time>2017-08-08T14:24:24.889Z</time>
</trkpt>
<trkpt lat="45.6032600" lon="8.2105000">
<time>2017-08-08T14:24:24.889Z</time>
</trkpt>
<trkpt lat="45.6035100" lon="8.2108700">
<time>2017-08-08T14:24:24.890Z</time>
</trkpt>
<trkpt lat="45.6036500" lon="8.2109400">
<time>2017-08-08T14:24:24.890Z</time>
</trkpt>
<trkpt lat="45.6038500" lon="8.2108300">
<time>2017-08-08T14:24:24.890Z</time>
</trkpt>
<trkpt lat="45.6040800" lon="8.2106800">
<time>2017-08-08T14:24:24.890Z</time>
</trkpt>
<trkpt lat="45.6039300" lon="8.2103300">
<time>2017-08-08T14:24:24.890Z</time>
</trkpt>
<trkpt lat="45.6036900" lon="8.2101500">
<time>2017-08-08T14:24:24.890Z</time>
</trkpt>
<trkpt lat="45.6035300" lon="8.2100600">
<time>2017-08-08T14:24:24.890Z</time>
</trkpt>
<trkpt lat="45.6034300" lon="8.2099800">
<time>2017-08-08T14:24:24.890Z</time>
</trkpt>
<trkpt lat="45.6033000" lon="8.2098800">
<time>2017-08-08T14:24:24.890Z</time>
</trkpt>
<trkpt lat="45.6031500" lon="8.2098400">
<time>2017-08-08T14:24:24.890Z</time>
</trkpt>
<trkpt lat="45.6030800" lon="8.2098100">
<time>2017-08-08T14:24:24.891Z</time>
</trkpt>
<trkpt lat="45.6030400" lon="8.2097300">
<time>2017-08-08T14:24:24.891Z</time>
</trkpt>
<trkpt lat="45.6030100" lon="8.2095800">
<time>2017-08-08T14:24:24.891Z</time>
</trkpt>
<trkpt lat="45.6031100" lon="8.2094600">
<time>2017-08-08T14:24:24.891Z</time>
</trkpt>
<trkpt lat="45.6031700" lon="8.2093500">
<time>2017-08-08T14:24:24.891Z</time>
</trkpt>
<trkpt lat="45.6032500" lon="8.2092400">
<time>2017-08-08T14:24:24.891Z</time>
</trkpt>
<trkpt lat="45.6032600" lon="8.2091200">
<time>2017-08-08T14:24:24.891Z</time>
</trkpt>
<trkpt lat="45.6032300" lon="8.2090100">
<time>2017-08-08T14:24:24.891Z</time>
</trkpt>
<trkpt lat="45.6031900" lon="8.2090200">
<time>2017-08-08T14:24:24.891Z</time>
</trkpt>
<trkpt lat="45.6030800" lon="8.2091000">
<time>2017-08-08T14:24:24.891Z</time>
</trkpt>
<trkpt lat="45.6029800" lon="8.2089500">
<time>2017-08-08T14:24:24.891Z</time>
</trkpt>
<trkpt lat="45.6029000" lon="8.2087600">
<time>2017-08-08T14:24:24.892Z</time>
</trkpt>
<trkpt lat="45.6028900" lon="8.2087300">
<time>2017-08-08T14:24:24.899Z</time>
</trkpt>
<trkpt lat="45.6027400" lon="8.2085000">
<time>2017-08-08T14:24:24.899Z</time>
</trkpt>
<trkpt lat="45.6026800" lon="8.2083900">
<time>2017-08-08T14:24:24.900Z</time>
</trkpt>
<trkpt lat="45.6026000" lon="8.2083000">
<time>2017-08-08T14:24:24.900Z</time>
</trkpt>
<trkpt lat="45.6025600" lon="8.2081600">
<time>2017-08-08T14:24:24.900Z</time>
</trkpt>
<trkpt lat="45.6024800" lon="8.2080600">
<time>2017-08-08T14:24:24.900Z</time>
</trkpt>
<trkpt lat="45.6024000" lon="8.2079400">
<time>2017-08-08T14:24:24.900Z</time>
</trkpt>
<trkpt lat="45.6023100" lon="8.2078600">
<time>2017-08-08T14:24:24.900Z</time>
</trkpt>
<trkpt lat="45.6022000" lon="8.2077700">
<time>2017-08-08T14:24:24.900Z</time>
</trkpt>
<trkpt lat="45.6020800" lon="8.2076500">
<time>2017-08-08T14:24:24.900Z</time>
</trkpt>
<trkpt lat="45.6020300" lon="8.2075500">
<time>2017-08-08T14:24:24.900Z</time>
</trkpt>
<trkpt lat="45.6019600" lon="8.2073600">
<time>2017-08-08T14:24:24.900Z</time>
</trkpt>
<trkpt lat="45.6020700" lon="8.2073700">
<time>2017-08-08T14:24:24.900Z</time>
</trkpt>
<trkpt lat="45.6020900" lon="8.2074100">
<time>2017-08-08T14:24:24.901Z</time>
</trkpt>
<trkpt lat="45.6022900" lon="8.2075400">
<time>2017-08-08T14:24:24.901Z</time>
</trkpt>
<trkpt lat="45.6024300" lon="8.2076200">
<time>2017-08-08T14:24:24.901Z</time>
</trkpt>
<trkpt lat="45.6024700" lon="8.2075400">
<time>2017-08-08T14:24:24.901Z</time>
</trkpt>
<trkpt lat="45.6023400" lon="8.2074300">
<time>2017-08-08T14:24:24.901Z</time>
</trkpt>
<trkpt lat="45.6022800" lon="8.2073700">
<time>2017-08-08T14:24:24.901Z</time>
</trkpt>
<trkpt lat="45.6021500" lon="8.2071700">
<time>2017-08-08T14:24:24.901Z</time>
</trkpt>
<trkpt lat="45.6020600" lon="8.2069700">
<time>2017-08-08T14:24:24.901Z</time>
</trkpt>
<trkpt lat="45.6021600" lon="8.2068500">
<time>2017-08-08T14:24:24.901Z</time>
</trkpt>
<trkpt lat="45.6023300" lon="8.2067600">
<time>2017-08-08T14:24:24.901Z</time>
</trkpt>
<trkpt lat="45.6024100" lon="8.2067400">
<time>2017-08-08T14:24:24.902Z</time>
</trkpt>
<trkpt lat="45.6025300" lon="8.2067200">
<time>2017-08-08T14:24:24.902Z</time>
</trkpt>
<trkpt lat="45.6026000" lon="8.2066900">
<time>2017-08-08T14:24:24.902Z</time>
</trkpt>
<trkpt lat="45.6027500" lon="8.2066700">
<time>2017-08-08T14:24:24.902Z</time>
</trkpt>
<trkpt lat="45.6028800" lon="8.2066500">
<time>2017-08-08T14:24:24.902Z</time>
</trkpt>
<trkpt lat="45.6029600" lon="8.2066400">
<time>2017-08-08T14:24:24.902Z</time>
</trkpt>
<trkpt lat="45.6031400" lon="8.2066300">
<time>2017-08-08T14:24:24.902Z</time>
</trkpt>
<trkpt lat="45.6033100" lon="8.2066000">
<time>2017-08-08T14:24:24.902Z</time>
</trkpt>
<trkpt lat="45.6034300" lon="8.2065200">
<time>2017-08-08T14:24:24.902Z</time>
</trkpt>
<trkpt lat="45.6034800" lon="8.2064700">
<time>2017-08-08T14:24:24.902Z</time>
</trkpt>
<trkpt lat="45.6035400" lon="8.2064300">
<time>2017-08-08T14:24:24.903Z</time>
</trkpt>
<trkpt lat="45.6036000" lon="8.2063700">
<time>2017-08-08T14:24:24.903Z</time>
</trkpt>
<trkpt lat="45.6036200" lon="8.2063000">
<time>2017-08-08T14:24:24.903Z</time>
</trkpt>
<trkpt lat="45.6036700" lon="8.2061900">
<time>2017-08-08T14:24:24.903Z</time>
</trkpt>
<trkpt lat="45.6036800" lon="8.2060700">
<time>2017-08-08T14:24:24.903Z</time>
</trkpt>
<trkpt lat="45.6037100" lon="8.2060200">
<time>2017-08-08T14:24:24.903Z</time>
</trkpt>
<trkpt lat="45.6037200" lon="8.2058900">
<time>2017-08-08T14:24:24.903Z</time>
</trkpt>
<trkpt lat="45.6037200" lon="8.2058300">
<time>2017-08-08T14:24:24.903Z</time>
</trkpt>
<trkpt lat="45.6037600" lon="8.2057200">
<time>2017-08-08T14:24:24.903Z</time>
</trkpt>
<trkpt lat="45.6037800" lon="8.2056400">
<time>2017-08-08T14:24:24.903Z</time>
</trkpt>
<trkpt lat="45.6038200" lon="8.2055900">
<time>2017-08-08T14:24:24.903Z</time>
</trkpt>
<trkpt lat="45.6039000" lon="8.2054700">
<time>2017-08-08T14:24:24.904Z</time>
</trkpt>
<trkpt lat="45.6039400" lon="8.2054100">
<time>2017-08-08T14:24:24.904Z</time>
</trkpt>
<trkpt lat="45.6039800" lon="8.2053500">
<time>2017-08-08T14:24:24.904Z</time>
</trkpt>
<trkpt lat="45.6040600" lon="8.2052000">
<time>2017-08-08T14:24:24.904Z</time>
</trkpt>
<trkpt lat="45.6041200" lon="8.2051500">
<time>2017-08-08T14:24:24.904Z</time>
</trkpt>
<trkpt lat="45.6041600" lon="8.2051000">
<time>2017-08-08T14:24:24.904Z</time>
</trkpt>
<trkpt lat="45.6043300" lon="8.2050000">
<time>2017-08-08T14:24:24.904Z</time>
</trkpt>
<trkpt lat="45.6043700" lon="8.2049400">
<time>2017-08-08T14:24:24.904Z</time>
</trkpt>
<trkpt lat="45.6043900" lon="8.2048600">
<time>2017-08-08T14:24:24.904Z</time>
</trkpt>
<trkpt lat="45.6043900" lon="8.2047100">
<time>2017-08-08T14:24:24.904Z</time>
</trkpt>
<trkpt lat="45.6043900" lon="8.2046400">
<time>2017-08-08T14:24:24.905Z</time>
</trkpt>
<trkpt lat="45.6043900" lon="8.2045000">
<time>2017-08-08T14:24:24.905Z</time>
</trkpt>
<trkpt lat="45.6042800" lon="8.2044000">
<time>2017-08-08T14:24:24.905Z</time>
</trkpt>
<trkpt lat="45.6042400" lon="8.2043300">
<time>2017-08-08T14:24:24.905Z</time>
</trkpt>
<trkpt lat="45.6042300" lon="8.2042000">
<time>2017-08-08T14:24:24.905Z</time>
</trkpt>
<trkpt lat="45.6041900" lon="8.2041500">
<time>2017-08-08T14:24:24.905Z</time>
</trkpt>
<trkpt lat="45.6041600" lon="8.2040200">
<time>2017-08-08T14:24:24.905Z</time>
</trkpt>
<trkpt lat="45.6041300" lon="8.2039500">
<time>2017-08-08T14:24:24.905Z</time>
</trkpt>
<trkpt lat="45.6041200" lon="8.2038200">
<time>2017-08-08T14:24:24.905Z</time>
</trkpt>
<trkpt lat="45.6041100" lon="8.2037600">
<time>2017-08-08T14:24:24.905Z</time>
</trkpt>
<trkpt lat="45.6041200" lon="8.2037000">
<time>2017-08-08T14:24:24.905Z</time>
</trkpt>
<trkpt lat="45.6041300" lon="8.2035500">
<time>2017-08-08T14:24:24.906Z</time>
</trkpt>
<trkpt lat="45.6041600" lon="8.2034700">
<time>2017-08-08T14:24:24.906Z</time>
</trkpt>
<trkpt lat="45.6041800" lon="8.2034200">
<time>2017-08-08T14:24:24.906Z</time>
</trkpt>
<trkpt lat="45.6042300" lon="8.2033500">
<time>2017-08-08T14:24:24.906Z</time>
</trkpt>
<trkpt lat="45.6042300" lon="8.2032900">
<time>2017-08-08T14:24:24.906Z</time>
</trkpt>
<trkpt lat="45.6042500" lon="8.2031400">
<time>2017-08-08T14:24:24.906Z</time>
</trkpt>
<trkpt lat="45.6042700" lon="8.2030600">
<time>2017-08-08T14:24:24.906Z</time>
</trkpt>
<trkpt lat="45.6042900" lon="8.2030000">
<time>2017-08-08T14:24:24.906Z</time>
</trkpt>
<trkpt lat="45.6043300" lon="8.2029300">
<time>2017-08-08T14:24:24.906Z</time>
</trkpt>
<trkpt lat="45.6043800" lon="8.2028500">
<time>2017-08-08T14:24:24.906Z</time>
</trkpt>
<trkpt lat="45.6044200" lon="8.2028000">
<time>2017-08-08T14:24:24.907Z</time>
</trkpt>
<trkpt lat="45.6044800" lon="8.2027400">
<time>2017-08-08T14:24:24.907Z</time>
</trkpt>
<trkpt lat="45.6045200" lon="8.2026700">
<time>2017-08-08T14:24:24.907Z</time>
</trkpt>
<trkpt lat="45.6048100" lon="8.2024500">
<time>2017-08-08T14:24:24.907Z</time>
</trkpt>
<trkpt lat="45.6049200" lon="8.2023900">
<time>2017-08-08T14:24:24.907Z</time>
</trkpt>
<trkpt lat="45.6050200" lon="8.2023500">
<time>2017-08-08T14:24:24.907Z</time>
</trkpt>
<trkpt lat="45.6051400" lon="8.2022500">
<time>2017-08-08T14:24:24.907Z</time>
</trkpt>
<trkpt lat="45.6052200" lon="8.2021400">
<time>2017-08-08T14:24:24.907Z</time>
</trkpt>
<trkpt lat="45.6053300" lon="8.2019900">
<time>2017-08-08T14:24:24.907Z</time>
</trkpt>
<trkpt lat="45.6054000" lon="8.2018200">
<time>2017-08-08T14:24:24.907Z</time>
</trkpt>
<trkpt lat="45.6054900" lon="8.2016700">
<time>2017-08-08T14:24:24.907Z</time>
</trkpt>
<trkpt lat="45.6055700" lon="8.2015300">
<time>2017-08-08T14:24:24.908Z</time>
</trkpt>
<trkpt lat="45.6055900" lon="8.2014100">
<time>2017-08-08T14:24:24.908Z</time>
</trkpt>
<trkpt lat="45.6056200" lon="8.2013400">
<time>2017-08-08T14:24:24.908Z</time>
</trkpt>
<trkpt lat="45.6056100" lon="8.2011300">
<time>2017-08-08T14:24:24.908Z</time>
</trkpt>
<trkpt lat="45.6055800" lon="8.2009100">
<time>2017-08-08T14:24:24.908Z</time>
</trkpt>
<trkpt lat="45.6055600" lon="8.2007900">
<time>2017-08-08T14:24:24.908Z</time>
</trkpt>
<trkpt lat="45.6055500" lon="8.2006500">
<time>2017-08-08T14:24:24.908Z</time>
</trkpt>
<trkpt lat="45.6055300" lon="8.2002800">
<time>2017-08-08T14:24:24.908Z</time>
</trkpt>
<trkpt lat="45.6055200" lon="8.2001200">
<time>2017-08-08T14:24:24.908Z</time>
</trkpt>
<trkpt lat="45.6055200" lon="8.2000600">
<time>2017-08-08T14:24:24.908Z</time>
</trkpt>
<trkpt lat="45.6055100" lon="8.1999600">
<time>2017-08-08T14:24:24.909Z</time>
</trkpt>
<trkpt lat="45.6055100" lon="8.1998500">
<time>2017-08-08T14:24:24.909Z</time>
</trkpt>
<trkpt lat="45.6056000" lon="8.1996700">
<time>2017-08-08T14:24:24.909Z</time>
</trkpt>
<trkpt lat="45.6056400" lon="8.1995600">
<time>2017-08-08T14:24:24.909Z</time>
</trkpt>
<trkpt lat="45.6057200" lon="8.1994500">
<time>2017-08-08T14:24:24.910Z</time>
</trkpt>
<trkpt lat="45.6057600" lon="8.1993700">
<time>2017-08-08T14:24:24.910Z</time>
</trkpt>
<trkpt lat="45.6058100" lon="8.1993000">
<time>2017-08-08T14:24:24.910Z</time>
</trkpt>
<trkpt lat="45.6058300" lon="8.1992700">
<time>2017-08-08T14:24:24.910Z</time>
</trkpt>
<trkpt lat="45.6058900" lon="8.1991700">
<time>2017-08-08T14:24:24.910Z</time>
</trkpt>
<trkpt lat="45.6059300" lon="8.1991100">
<time>2017-08-08T14:24:24.910Z</time>
</trkpt>
<trkpt lat="45.6059800" lon="8.1990500">
<time>2017-08-08T14:24:24.910Z</time>
</trkpt>
<trkpt lat="45.6060100" lon="8.1990100">
<time>2017-08-08T14:24:24.910Z</time>
</trkpt>
<trkpt lat="45.6060700" lon="8.1989300">
<time>2017-08-08T14:24:24.910Z</time>
</trkpt>
<trkpt lat="45.6061000" lon="8.1988800">
<time>2017-08-08T14:24:24.910Z</time>
</trkpt>
<trkpt lat="45.6061600" lon="8.1987700">
<time>2017-08-08T14:24:24.911Z</time>
</trkpt>
<trkpt lat="45.6062500" lon="8.1986900">
<time>2017-08-08T14:24:24.911Z</time>
</trkpt>
<trkpt lat="45.6063500" lon="8.1986100">
<time>2017-08-08T14:24:24.911Z</time>
</trkpt>
<trkpt lat="45.6065100" lon="8.1984600">
<time>2017-08-08T14:24:24.911Z</time>
</trkpt>
<trkpt lat="45.6066300" lon="8.1982600">
<time>2017-08-08T14:24:24.911Z</time>
</trkpt>
<trkpt lat="45.6066700" lon="8.1981400">
<time>2017-08-08T14:24:24.911Z</time>
</trkpt>
<trkpt lat="45.6067300" lon="8.1980500">
<time>2017-08-08T14:24:24.911Z</time>
</trkpt>
<trkpt lat="45.6067800" lon="8.1979200">
<time>2017-08-08T14:24:24.911Z</time>
</trkpt>
<trkpt lat="45.6068200" lon="8.1977900">
<time>2017-08-08T14:24:24.911Z</time>
</trkpt>
<trkpt lat="45.6068400" lon="8.1977100">
<time>2017-08-08T14:24:24.911Z</time>
</trkpt>
<trkpt lat="45.6068700" lon="8.1976600">
<time>2017-08-08T14:24:24.911Z</time>
</trkpt>
<trkpt lat="45.6069300" lon="8.1974900">
<time>2017-08-08T14:24:24.912Z</time>
</trkpt>
<trkpt lat="45.6069600" lon="8.1973900">
<time>2017-08-08T14:24:24.912Z</time>
</trkpt>
<trkpt lat="45.6070100" lon="8.1973200">
<time>2017-08-08T14:24:24.912Z</time>
</trkpt>
<trkpt lat="45.6071600" lon="8.1972000">
<time>2017-08-08T14:24:24.912Z</time>
</trkpt>
<trkpt lat="45.6073300" lon="8.1971100">
<time>2017-08-08T14:24:24.912Z</time>
</trkpt>
<trkpt lat="45.6074200" lon="8.1970400">
<time>2017-08-08T14:24:24.912Z</time>
</trkpt>
<trkpt lat="45.6075200" lon="8.1969700">
<time>2017-08-08T14:24:24.912Z</time>
</trkpt>
<trkpt lat="45.6076200" lon="8.1969000">
<time>2017-08-08T14:24:24.912Z</time>
</trkpt>
<trkpt lat="45.6077000" lon="8.1968200">
<time>2017-08-08T14:24:24.912Z</time>
</trkpt>
<trkpt lat="45.6077700" lon="8.1967600">
<time>2017-08-08T14:24:24.912Z</time>
</trkpt>
<trkpt lat="45.6078400" lon="8.1967200">
<time>2017-08-08T14:24:24.913Z</time>
</trkpt>
<trkpt lat="45.6079400" lon="8.1966300">
<time>2017-08-08T14:24:24.913Z</time>
</trkpt>
<trkpt lat="45.6080600" lon="8.1965400">
<time>2017-08-08T14:24:24.913Z</time>
</trkpt>
<trkpt lat="45.6081700" lon="8.1964600">
<time>2017-08-08T14:24:24.913Z</time>
</trkpt>
<trkpt lat="45.6082300" lon="8.1964000">
<time>2017-08-08T14:24:24.913Z</time>
</trkpt>
<trkpt lat="45.6082900" lon="8.1963200">
<time>2017-08-08T14:24:24.913Z</time>
</trkpt>
<trkpt lat="45.6084100" lon="8.1961900">
<time>2017-08-08T14:24:24.913Z</time>
</trkpt>
<trkpt lat="45.6085000" lon="8.1961200">
<time>2017-08-08T14:24:24.913Z</time>
</trkpt>
<trkpt lat="45.6086100" lon="8.1960700">
<time>2017-08-08T14:24:24.913Z</time>
</trkpt>
<trkpt lat="45.6087300" lon="8.1960500">
<time>2017-08-08T14:24:24.913Z</time>
</trkpt>
<trkpt lat="45.6088400" lon="8.1960300">
<time>2017-08-08T14:24:24.914Z</time>
</trkpt>
<trkpt lat="45.6088700" lon="8.1960200">
<time>2017-08-08T14:24:24.914Z</time>
</trkpt>
<trkpt lat="45.6089200" lon="8.1960200">
<time>2017-08-08T14:24:24.914Z</time>
</trkpt>
<trkpt lat="45.6089600" lon="8.1960100">
<time>2017-08-08T14:24:24.914Z</time>
</trkpt>
<trkpt lat="45.6089900" lon="8.1960200">
<time>2017-08-08T14:24:24.914Z</time>
</trkpt>
<trkpt lat="45.6090400" lon="8.1960400">
<time>2017-08-08T14:24:24.914Z</time>
</trkpt>
<trkpt lat="45.6090700" lon="8.1960600">
<time>2017-08-08T14:24:24.914Z</time>
</trkpt>
<trkpt lat="45.6091100" lon="8.1960700">
<time>2017-08-08T14:24:24.914Z</time>
</trkpt>
<trkpt lat="45.6091500" lon="8.1960900">
<time>2017-08-08T14:24:24.914Z</time>
</trkpt>
<trkpt lat="45.6091800" lon="8.1961000">
<time>2017-08-08T14:24:24.914Z</time>
</trkpt>
<trkpt lat="45.6092300" lon="8.1961000">
<time>2017-08-08T14:24:24.915Z</time>
</trkpt>
<trkpt lat="45.6092600" lon="8.1961100">
<time>2017-08-08T14:24:24.915Z</time>
</trkpt>
<trkpt lat="45.6093100" lon="8.1961200">
<time>2017-08-08T14:24:24.915Z</time>
</trkpt>
<trkpt lat="45.6093400" lon="8.1961300">
<time>2017-08-08T14:24:24.915Z</time>
</trkpt>
<trkpt lat="45.6093700" lon="8.1961400">
<time>2017-08-08T14:24:24.915Z</time>
</trkpt>
<trkpt lat="45.6094000" lon="8.1961600">
<time>2017-08-08T14:24:24.915Z</time>
</trkpt>
<trkpt lat="45.6094500" lon="8.1961800">
<time>2017-08-08T14:24:24.915Z</time>
</trkpt>
<trkpt lat="45.6094900" lon="8.1961900">
<time>2017-08-08T14:24:24.915Z</time>
</trkpt>
<trkpt lat="45.6095200" lon="8.1962000">
<time>2017-08-08T14:24:24.915Z</time>
</trkpt>
<trkpt lat="45.6095500" lon="8.1962300">
<time>2017-08-08T14:24:24.915Z</time>
</trkpt>
<trkpt lat="45.6095900" lon="8.1962600">
<time>2017-08-08T14:24:24.915Z</time>
</trkpt>
<trkpt lat="45.6096300" lon="8.1962800">
<time>2017-08-08T14:24:24.916Z</time>
</trkpt>
<trkpt lat="45.6096600" lon="8.1963100">
<time>2017-08-08T14:24:24.916Z</time>
</trkpt>
<trkpt lat="45.6096900" lon="8.1963300">
<time>2017-08-08T14:24:24.916Z</time>
</trkpt>
<trkpt lat="45.6097400" lon="8.1963500">
<time>2017-08-08T14:24:24.916Z</time>
</trkpt>
<trkpt lat="45.6097700" lon="8.1963700">
<time>2017-08-08T14:24:24.916Z</time>
</trkpt>
<trkpt lat="45.6098000" lon="8.1963800">
<time>2017-08-08T14:24:24.916Z</time>
</trkpt>
<trkpt lat="45.6098400" lon="8.1964200">
<time>2017-08-08T14:24:24.916Z</time>
</trkpt>
<trkpt lat="45.6098600" lon="8.1964600">
<time>2017-08-08T14:24:24.916Z</time>
</trkpt>
<trkpt lat="45.6098800" lon="8.1965100">
<time>2017-08-08T14:24:24.916Z</time>
</trkpt>
<trkpt lat="45.6099100" lon="8.1965400">
<time>2017-08-08T14:24:24.916Z</time>
</trkpt>
<trkpt lat="45.6099400" lon="8.1965700">
<time>2017-08-08T14:24:24.916Z</time>
</trkpt>
<trkpt lat="45.6099600" lon="8.1966100">
<time>2017-08-08T14:24:24.917Z</time>
</trkpt>
<trkpt lat="45.6099900" lon="8.1966500">
<time>2017-08-08T14:24:24.917Z</time>
</trkpt>
<trkpt lat="45.6100200" lon="8.1966900">
<time>2017-08-08T14:24:24.917Z</time>
</trkpt>
<trkpt lat="45.6100400" lon="8.1967200">
<time>2017-08-08T14:24:24.917Z</time>
</trkpt>
<trkpt lat="45.6100700" lon="8.1967600">
<time>2017-08-08T14:24:24.917Z</time>
</trkpt>
<trkpt lat="45.6101100" lon="8.1968000">
<time>2017-08-08T14:24:24.917Z</time>
</trkpt>
<trkpt lat="45.6101400" lon="8.1968300">
<time>2017-08-08T14:24:24.917Z</time>
</trkpt>
<trkpt lat="45.6101700" lon="8.1968700">
<time>2017-08-08T14:24:24.917Z</time>
</trkpt>
<trkpt lat="45.6102100" lon="8.1969200">
<time>2017-08-08T14:24:24.917Z</time>
</trkpt>
<trkpt lat="45.6102400" lon="8.1969500">
<time>2017-08-08T14:24:24.917Z</time>
</trkpt>
<trkpt lat="45.6102600" lon="8.1969800">
<time>2017-08-08T14:24:24.917Z</time>
</trkpt>
<trkpt lat="45.6103100" lon="8.1970100">
<time>2017-08-08T14:24:24.918Z</time>
</trkpt>
<trkpt lat="45.6103500" lon="8.1970400">
<time>2017-08-08T14:24:24.918Z</time>
</trkpt>
<trkpt lat="45.6103800" lon="8.1970500">
<time>2017-08-08T14:24:24.918Z</time>
</trkpt>
<trkpt lat="45.6104300" lon="8.1970400">
<time>2017-08-08T14:24:24.918Z</time>
</trkpt>
<trkpt lat="45.6104600" lon="8.1970600">
<time>2017-08-08T14:24:24.918Z</time>
</trkpt>
<trkpt lat="45.6105000" lon="8.1970600">
<time>2017-08-08T14:24:24.918Z</time>
</trkpt>
<trkpt lat="45.6105300" lon="8.1970600">
<time>2017-08-08T14:24:24.918Z</time>
</trkpt>
<trkpt lat="45.6105600" lon="8.1970600">
<time>2017-08-08T14:24:24.918Z</time>
</trkpt>
<trkpt lat="45.6105800" lon="8.1970700">
<time>2017-08-08T14:24:24.918Z</time>
</trkpt>
<trkpt lat="45.6106200" lon="8.1970900">
<time>2017-08-08T14:24:24.918Z</time>
</trkpt>
<trkpt lat="45.6106600" lon="8.1971100">
<time>2017-08-08T14:24:24.919Z</time>
</trkpt>
<trkpt lat="45.6106800" lon="8.1971200">
<time>2017-08-08T14:24:24.919Z</time>
</trkpt>
<trkpt lat="45.6107100" lon="8.1971300">
<time>2017-08-08T14:24:24.919Z</time>
</trkpt>
<trkpt lat="45.6107500" lon="8.1971500">
<time>2017-08-08T14:24:24.919Z</time>
</trkpt>
<trkpt lat="45.6107800" lon="8.1971500">
<time>2017-08-08T14:24:24.919Z</time>
</trkpt>
<trkpt lat="45.6108200" lon="8.1971500">
<time>2017-08-08T14:24:24.919Z</time>
</trkpt>
<trkpt lat="45.6108900" lon="8.1971500">
<time>2017-08-08T14:24:24.920Z</time>
</trkpt>
<trkpt lat="45.6109400" lon="8.1971500">
<time>2017-08-08T14:24:24.920Z</time>
</trkpt>
<trkpt lat="45.6109800" lon="8.1971400">
<time>2017-08-08T14:24:24.920Z</time>
</trkpt>
<trkpt lat="45.6110200" lon="8.1971400">
<time>2017-08-08T14:24:24.920Z</time>
</trkpt>
<trkpt lat="45.6110600" lon="8.1971500">
<time>2017-08-08T14:24:24.920Z</time>
</trkpt>
<trkpt lat="45.6111000" lon="8.1971500">
<time>2017-08-08T14:24:24.920Z</time>
</trkpt>
<trkpt lat="45.6111300" lon="8.1971500">
<time>2017-08-08T14:24:24.920Z</time>
</trkpt>
<trkpt lat="45.6111800" lon="8.1971600">
<time>2017-08-08T14:24:24.920Z</time>
</trkpt>
<trkpt lat="45.6112200" lon="8.1971500">
<time>2017-08-08T14:24:24.920Z</time>
</trkpt>
<trkpt lat="45.6112600" lon="8.1971600">
<time>2017-08-08T14:24:24.920Z</time>
</trkpt>
<trkpt lat="45.6113000" lon="8.1971700">
<time>2017-08-08T14:24:24.921Z</time>
</trkpt>
<trkpt lat="45.6113400" lon="8.1971800">
<time>2017-08-08T14:24:24.921Z</time>
</trkpt>
<trkpt lat="45.6113700" lon="8.1971800">
<time>2017-08-08T14:24:24.921Z</time>
</trkpt>
<trkpt lat="45.6114100" lon="8.1972000">
<time>2017-08-08T14:24:24.921Z</time>
</trkpt>
<trkpt lat="45.6114500" lon="8.1972100">
<time>2017-08-08T14:24:24.921Z</time>
</trkpt>
<trkpt lat="45.6115100" lon="8.1972000">
<time>2017-08-08T14:24:24.921Z</time>
</trkpt>
<trkpt lat="45.6115500" lon="8.1972000">
<time>2017-08-08T14:24:24.921Z</time>
</trkpt>
<trkpt lat="45.6115900" lon="8.1972000">
<time>2017-08-08T14:24:24.921Z</time>
</trkpt>
<trkpt lat="45.6116300" lon="8.1972000">
<time>2017-08-08T14:24:24.921Z</time>
</trkpt>
<trkpt lat="45.6116500" lon="8.1972000">
<time>2017-08-08T14:24:24.921Z</time>
</trkpt>
<trkpt lat="45.6116800" lon="8.1972100">
<time>2017-08-08T14:24:24.922Z</time>
</trkpt>
<trkpt lat="45.6117400" lon="8.1972100">
<time>2017-08-08T14:24:24.922Z</time>
</trkpt>
<trkpt lat="45.6118200" lon="8.1972100">
<time>2017-08-08T14:24:24.922Z</time>
</trkpt>
<trkpt lat="45.6118600" lon="8.1972100">
<time>2017-08-08T14:24:24.922Z</time>
</trkpt>
<trkpt lat="45.6119100" lon="8.1972000">
<time>2017-08-08T14:24:24.922Z</time>
</trkpt>
<trkpt lat="45.6119600" lon="8.1972000">
<time>2017-08-08T14:24:24.922Z</time>
</trkpt>
<trkpt lat="45.6120000" lon="8.1971900">
<time>2017-08-08T14:24:24.922Z</time>
</trkpt>
<trkpt lat="45.6120300" lon="8.1971700">
<time>2017-08-08T14:24:24.922Z</time>
</trkpt>
<trkpt lat="45.6120600" lon="8.1971300">
<time>2017-08-08T14:24:24.922Z</time>
</trkpt>
<trkpt lat="45.6121100" lon="8.1970900">
<time>2017-08-08T14:24:24.922Z</time>
</trkpt>
<trkpt lat="45.6121200" lon="8.1970700">
<time>2017-08-08T14:24:24.922Z</time>
</trkpt>
<trkpt lat="45.6121800" lon="8.1970100">
<time>2017-08-08T14:24:24.923Z</time>
</trkpt>
<trkpt lat="45.6122200" lon="8.1969700">
<time>2017-08-08T14:24:24.923Z</time>
</trkpt>
<trkpt lat="45.6122500" lon="8.1969200">
<time>2017-08-08T14:24:24.923Z</time>
</trkpt>
<trkpt lat="45.6122800" lon="8.1968800">
<time>2017-08-08T14:24:24.923Z</time>
</trkpt>
<trkpt lat="45.6123100" lon="8.1968400">
<time>2017-08-08T14:24:24.923Z</time>
</trkpt>
<trkpt lat="45.6123600" lon="8.1967900">
<time>2017-08-08T14:24:24.923Z</time>
</trkpt>
<trkpt lat="45.6123900" lon="8.1967300">
<time>2017-08-08T14:24:24.923Z</time>
</trkpt>
<trkpt lat="45.6124300" lon="8.1966800">
<time>2017-08-08T14:24:24.923Z</time>
</trkpt>
<trkpt lat="45.6124600" lon="8.1966500">
<time>2017-08-08T14:24:24.923Z</time>
</trkpt>
<trkpt lat="45.6125100" lon="8.1966200">
<time>2017-08-08T14:24:24.923Z</time>
</trkpt>
<trkpt lat="45.6125400" lon="8.1965700">
<time>2017-08-08T14:24:24.924Z</time>
</trkpt>
<trkpt lat="45.6125600" lon="8.1965600">
<time>2017-08-08T14:24:24.924Z</time>
</trkpt>
<trkpt lat="45.6126200" lon="8.1965300">
<time>2017-08-08T14:24:24.924Z</time>
</trkpt>
<trkpt lat="45.6126500" lon="8.1965100">
<time>2017-08-08T14:24:24.924Z</time>
</trkpt>
<trkpt lat="45.6126900" lon="8.1964800">
<time>2017-08-08T14:24:24.924Z</time>
</trkpt>
<trkpt lat="45.6127300" lon="8.1964600">
<time>2017-08-08T14:24:24.924Z</time>
</trkpt>
<trkpt lat="45.6127700" lon="8.1964200">
<time>2017-08-08T14:24:24.924Z</time>
</trkpt>
<trkpt lat="45.6128100" lon="8.1963900">
<time>2017-08-08T14:24:24.924Z</time>
</trkpt>
<trkpt lat="45.6128500" lon="8.1963800">
<time>2017-08-08T14:24:24.924Z</time>
</trkpt>
<trkpt lat="45.6128900" lon="8.1963600">
<time>2017-08-08T14:24:24.924Z</time>
</trkpt>
<trkpt lat="45.6129200" lon="8.1963500">
<time>2017-08-08T14:24:24.924Z</time>
</trkpt>
<trkpt lat="45.6129600" lon="8.1963200">
<time>2017-08-08T14:24:24.925Z</time>
</trkpt>
<trkpt lat="45.6129900" lon="8.1963100">
<time>2017-08-08T14:24:24.925Z</time>
</trkpt>
<trkpt lat="45.6130500" lon="8.1963000">
<time>2017-08-08T14:24:24.925Z</time>
</trkpt>
<trkpt lat="45.6130800" lon="8.1963000">
<time>2017-08-08T14:24:24.925Z</time>
</trkpt>
<trkpt lat="45.6131300" lon="8.1962800">
<time>2017-08-08T14:24:24.925Z</time>
</trkpt>
<trkpt lat="45.6131800" lon="8.1962800">
<time>2017-08-08T14:24:24.925Z</time>
</trkpt>
<trkpt lat="45.6132300" lon="8.1962500">
<time>2017-08-08T14:24:24.925Z</time>
</trkpt>
<trkpt lat="45.6132700" lon="8.1962500">
<time>2017-08-08T14:24:24.925Z</time>
</trkpt>
<trkpt lat="45.6133100" lon="8.1962200">
<time>2017-08-08T14:24:24.925Z</time>
</trkpt>
<trkpt lat="45.6133400" lon="8.1962100">
<time>2017-08-08T14:24:24.925Z</time>
</trkpt>
<trkpt lat="45.6133800" lon="8.1961900">
<time>2017-08-08T14:24:24.925Z</time>
</trkpt>
<trkpt lat="45.6134200" lon="8.1961700">
<time>2017-08-08T14:24:24.926Z</time>
</trkpt>
<trkpt lat="45.6134700" lon="8.1961600">
<time>2017-08-08T14:24:24.926Z</time>
</trkpt>
<trkpt lat="45.6135100" lon="8.1961300">
<time>2017-08-08T14:24:24.926Z</time>
</trkpt>
<trkpt lat="45.6135600" lon="8.1961200">
<time>2017-08-08T14:24:24.926Z</time>
</trkpt>
<trkpt lat="45.6136100" lon="8.1961000">
<time>2017-08-08T14:24:24.926Z</time>
</trkpt>
<trkpt lat="45.6136400" lon="8.1960900">
<time>2017-08-08T14:24:24.926Z</time>
</trkpt>
<trkpt lat="45.6136800" lon="8.1960600">
<time>2017-08-08T14:24:24.926Z</time>
</trkpt>
<trkpt lat="45.6137200" lon="8.1960300">
<time>2017-08-08T14:24:24.926Z</time>
</trkpt>
<trkpt lat="45.6137700" lon="8.1960100">
<time>2017-08-08T14:24:24.926Z</time>
</trkpt>
<trkpt lat="45.6138200" lon="8.1960000">
<time>2017-08-08T14:24:24.926Z</time>
</trkpt>
<trkpt lat="45.6138500" lon="8.1959900">
<time>2017-08-08T14:24:24.927Z</time>
</trkpt>
<trkpt lat="45.6139000" lon="8.1959800">
<time>2017-08-08T14:24:24.927Z</time>
</trkpt>
<trkpt lat="45.6139500" lon="8.1959700">
<time>2017-08-08T14:24:24.927Z</time>
</trkpt>
<trkpt lat="45.6139800" lon="8.1959600">
<time>2017-08-08T14:24:24.927Z</time>
</trkpt>
<trkpt lat="45.6140400" lon="8.1959400">
<time>2017-08-08T14:24:24.927Z</time>
</trkpt>
<trkpt lat="45.6140900" lon="8.1959200">
<time>2017-08-08T14:24:24.927Z</time>
</trkpt>
<trkpt lat="45.6141400" lon="8.1958900">
<time>2017-08-08T14:24:24.927Z</time>
</trkpt>
<trkpt lat="45.6141700" lon="8.1958500">
<time>2017-08-08T14:24:24.927Z</time>
</trkpt>
<trkpt lat="45.6142000" lon="8.1958000">
<time>2017-08-08T14:24:24.927Z</time>
</trkpt>
<trkpt lat="45.6142400" lon="8.1957600">
<time>2017-08-08T14:24:24.927Z</time>
</trkpt>
<trkpt lat="45.6142900" lon="8.1957200">
<time>2017-08-08T14:24:24.927Z</time>
</trkpt>
<trkpt lat="45.6144200" lon="8.1956800">
<time>2017-08-08T14:24:24.928Z</time>
</trkpt>
<trkpt lat="45.6144500" lon="8.1956700">
<time>2017-08-08T14:24:24.928Z</time>
</trkpt>
<trkpt lat="45.6144800" lon="8.1956400">
<time>2017-08-08T14:24:24.928Z</time>
</trkpt>
<trkpt lat="45.6145100" lon="8.1956400">
<time>2017-08-08T14:24:24.928Z</time>
</trkpt>
<trkpt lat="45.6145500" lon="8.1956300">
<time>2017-08-08T14:24:24.928Z</time>
</trkpt>
<trkpt lat="45.6145900" lon="8.1956000">
<time>2017-08-08T14:24:24.928Z</time>
</trkpt>
<trkpt lat="45.6146300" lon="8.1955800">
<time>2017-08-08T14:24:24.928Z</time>
</trkpt>
<trkpt lat="45.6146700" lon="8.1955600">
<time>2017-08-08T14:24:24.928Z</time>
</trkpt>
<trkpt lat="45.6147200" lon="8.1955300">
<time>2017-08-08T14:24:24.928Z</time>
</trkpt>
<trkpt lat="45.6147600" lon="8.1955000">
<time>2017-08-08T14:24:24.928Z</time>
</trkpt>
<trkpt lat="45.6148000" lon="8.1954700">
<time>2017-08-08T14:24:24.929Z</time>
</trkpt>
<trkpt lat="45.6148400" lon="8.1954400">
<time>2017-08-08T14:24:24.929Z</time>
</trkpt>
<trkpt lat="45.6148900" lon="8.1954000">
<time>2017-08-08T14:24:24.929Z</time>
</trkpt>
<trkpt lat="45.6149300" lon="8.1953500">
<time>2017-08-08T14:24:24.929Z</time>
</trkpt>
<trkpt lat="45.6149700" lon="8.1953200">
<time>2017-08-08T14:24:24.929Z</time>
</trkpt>
<trkpt lat="45.6150100" lon="8.1952900">
<time>2017-08-08T14:24:24.929Z</time>
</trkpt>
<trkpt lat="45.6150500" lon="8.1952400">
<time>2017-08-08T14:24:24.929Z</time>
</trkpt>
<trkpt lat="45.6150900" lon="8.1952000">
<time>2017-08-08T14:24:24.929Z</time>
</trkpt>
<trkpt lat="45.6151300" lon="8.1951700">
<time>2017-08-08T14:24:24.930Z</time>
</trkpt>
<trkpt lat="45.6151700" lon="8.1951200">
<time>2017-08-08T14:24:24.930Z</time>
</trkpt>
<trkpt lat="45.6152100" lon="8.1950700">
<time>2017-08-08T14:24:24.930Z</time>
</trkpt>
<trkpt lat="45.6152300" lon="8.1950300">
<time>2017-08-08T14:24:24.930Z</time>
</trkpt>
<trkpt lat="45.6152500" lon="8.1949600">
<time>2017-08-08T14:24:24.930Z</time>
</trkpt>
<trkpt lat="45.6152400" lon="8.1948900">
<time>2017-08-08T14:24:24.930Z</time>
</trkpt>
<trkpt lat="45.6152400" lon="8.1948400">
<time>2017-08-08T14:24:24.930Z</time>
</trkpt>
<trkpt lat="45.6152400" lon="8.1947700">
<time>2017-08-08T14:24:24.930Z</time>
</trkpt>
<trkpt lat="45.6152400" lon="8.1947100">
<time>2017-08-08T14:24:24.930Z</time>
</trkpt>
<trkpt lat="45.6152400" lon="8.1946500">
<time>2017-08-08T14:24:24.930Z</time>
</trkpt>
<trkpt lat="45.6152400" lon="8.1946000">
<time>2017-08-08T14:24:24.931Z</time>
</trkpt>
<trkpt lat="45.6152300" lon="8.1945300">
<time>2017-08-08T14:24:24.931Z</time>
</trkpt>
<trkpt lat="45.6152300" lon="8.1944600">
<time>2017-08-08T14:24:24.931Z</time>
</trkpt>
<trkpt lat="45.6152300" lon="8.1944100">
<time>2017-08-08T14:24:24.931Z</time>
</trkpt>
<trkpt lat="45.6152100" lon="8.1943500">
<time>2017-08-08T14:24:24.931Z</time>
</trkpt>
<trkpt lat="45.6152100" lon="8.1942500">
<time>2017-08-08T14:24:24.931Z</time>
</trkpt>
<trkpt lat="45.6151900" lon="8.1942000">
<time>2017-08-08T14:24:24.931Z</time>
</trkpt>
<trkpt lat="45.6151800" lon="8.1941300">
<time>2017-08-08T14:24:24.931Z</time>
</trkpt>
<trkpt lat="45.6151600" lon="8.1940900">
<time>2017-08-08T14:24:24.931Z</time>
</trkpt>
<trkpt lat="45.6151600" lon="8.1940700">
<time>2017-08-08T14:24:24.931Z</time>
</trkpt>
<trkpt lat="45.6151500" lon="8.1940000">
<time>2017-08-08T14:24:24.931Z</time>
</trkpt>
<trkpt lat="45.6151400" lon="8.1939100">
<time>2017-08-08T14:24:24.932Z</time>
</trkpt>
<trkpt lat="45.6151300" lon="8.1938800">
<time>2017-08-08T14:24:24.932Z</time>
</trkpt>
<trkpt lat="45.6151100" lon="8.1938200">
<time>2017-08-08T14:24:24.932Z</time>
</trkpt>
<trkpt lat="45.6151000" lon="8.1937700">
<time>2017-08-08T14:24:24.932Z</time>
</trkpt>
<trkpt lat="45.6150700" lon="8.1937400">
<time>2017-08-08T14:24:24.932Z</time>
</trkpt>
<trkpt lat="45.6150500" lon="8.1936800">
<time>2017-08-08T14:24:24.932Z</time>
</trkpt>
<trkpt lat="45.6150200" lon="8.1936300">
<time>2017-08-08T14:24:24.932Z</time>
</trkpt>
<trkpt lat="45.6150100" lon="8.1935900">
<time>2017-08-08T14:24:24.932Z</time>
</trkpt>
<trkpt lat="45.6149900" lon="8.1935500">
<time>2017-08-08T14:24:24.932Z</time>
</trkpt>
<trkpt lat="45.6149900" lon="8.1934900">
<time>2017-08-08T14:24:24.932Z</time>
</trkpt>
<trkpt lat="45.6149600" lon="8.1934500">
<time>2017-08-08T14:24:24.933Z</time>
</trkpt>
<trkpt lat="45.6149500" lon="8.1933800">
<time>2017-08-08T14:24:24.933Z</time>
</trkpt>
<trkpt lat="45.6149500" lon="8.1933000">
<time>2017-08-08T14:24:24.933Z</time>
</trkpt>
<trkpt lat="45.6149500" lon="8.1932600">
<time>2017-08-08T14:24:24.933Z</time>
</trkpt>
<trkpt lat="45.6149500" lon="8.1931900">
<time>2017-08-08T14:24:24.933Z</time>
</trkpt>
<trkpt lat="45.6149500" lon="8.1931400">
<time>2017-08-08T14:24:24.933Z</time>
</trkpt>
<trkpt lat="45.6149600" lon="8.1931000">
<time>2017-08-08T14:24:24.933Z</time>
</trkpt>
<trkpt lat="45.6149700" lon="8.1930400">
<time>2017-08-08T14:24:24.933Z</time>
</trkpt>
<trkpt lat="45.6149800" lon="8.1929800">
<time>2017-08-08T14:24:24.933Z</time>
</trkpt>
<trkpt lat="45.6149800" lon="8.1929300">
<time>2017-08-08T14:24:24.933Z</time>
</trkpt>
<trkpt lat="45.6149800" lon="8.1928700">
<time>2017-08-08T14:24:24.933Z</time>
</trkpt>
<trkpt lat="45.6149800" lon="8.1928300">
<time>2017-08-08T14:24:24.934Z</time>
</trkpt>
<trkpt lat="45.6149900" lon="8.1927700">
<time>2017-08-08T14:24:24.934Z</time>
</trkpt>
<trkpt lat="45.6149900" lon="8.1926900">
<time>2017-08-08T14:24:24.934Z</time>
</trkpt>
<trkpt lat="45.6150000" lon="8.1926300">
<time>2017-08-08T14:24:24.934Z</time>
</trkpt>
<trkpt lat="45.6150000" lon="8.1925800">
<time>2017-08-08T14:24:24.934Z</time>
</trkpt>
<trkpt lat="45.6150000" lon="8.1925200">
<time>2017-08-08T14:24:24.934Z</time>
</trkpt>
<trkpt lat="45.6149900" lon="8.1924700">
<time>2017-08-08T14:24:24.934Z</time>
</trkpt>
<trkpt lat="45.6149900" lon="8.1924200">
<time>2017-08-08T14:24:24.934Z</time>
</trkpt>
<trkpt lat="45.6149800" lon="8.1923600">
<time>2017-08-08T14:24:24.934Z</time>
</trkpt>
<trkpt lat="45.6150400" lon="8.1923000">
<time>2017-08-08T14:24:24.934Z</time>
</trkpt>
<trkpt lat="45.6150700" lon="8.1923500">
<time>2017-08-08T14:24:24.934Z</time>
</trkpt>
<trkpt lat="45.6151000" lon="8.1924200">
<time>2017-08-08T14:24:24.935Z</time>
</trkpt>
<trkpt lat="45.6151800" lon="8.1927100">
<time>2017-08-08T14:24:24.935Z</time>
</trkpt>
<trkpt lat="45.6151600" lon="8.1928100">
<time>2017-08-08T14:24:24.935Z</time>
</trkpt>
<trkpt lat="45.6151400" lon="8.1930900">
<time>2017-08-08T14:24:24.935Z</time>
</trkpt>
<trkpt lat="45.6151500" lon="8.1932100">
<time>2017-08-08T14:24:24.935Z</time>
</trkpt>
<trkpt lat="45.6151800" lon="8.1933000">
<time>2017-08-08T14:24:24.935Z</time>
</trkpt>
<trkpt lat="45.6151800" lon="8.1933300">
<time>2017-08-08T14:24:24.935Z</time>
</trkpt>
<trkpt lat="45.6151800" lon="8.1933700">
<time>2017-08-08T14:24:24.935Z</time>
</trkpt>
<trkpt lat="45.6151800" lon="8.1934100">
<time>2017-08-08T14:24:24.935Z</time>
</trkpt>
<trkpt lat="45.6151900" lon="8.1934500">
<time>2017-08-08T14:24:24.935Z</time>
</trkpt>
<trkpt lat="45.6152100" lon="8.1934900">
<time>2017-08-08T14:24:24.936Z</time>
</trkpt>
<trkpt lat="45.6152300" lon="8.1935300">
<time>2017-08-08T14:24:24.936Z</time>
</trkpt>
<trkpt lat="45.6152500" lon="8.1935700">
<time>2017-08-08T14:24:24.936Z</time>
</trkpt>
<trkpt lat="45.6152700" lon="8.1936000">
<time>2017-08-08T14:24:24.936Z</time>
</trkpt>
<trkpt lat="45.6153100" lon="8.1936600">
<time>2017-08-08T14:24:24.936Z</time>
</trkpt>
<trkpt lat="45.6154600" lon="8.1937100">
<time>2017-08-08T14:24:24.936Z</time>
</trkpt>
<trkpt lat="45.6155200" lon="8.1937500">
<time>2017-08-08T14:24:24.936Z</time>
</trkpt>
<trkpt lat="45.6155600" lon="8.1937500">
<time>2017-08-08T14:24:24.936Z</time>
</trkpt>
<trkpt lat="45.6156000" lon="8.1937500">
<time>2017-08-08T14:24:24.936Z</time>
</trkpt>
<trkpt lat="45.6156500" lon="8.1937500">
<time>2017-08-08T14:24:24.936Z</time>
</trkpt>
<trkpt lat="45.6157200" lon="8.1936800">
<time>2017-08-08T14:24:24.936Z</time>
</trkpt>
<trkpt lat="45.6157400" lon="8.1936600">
<time>2017-08-08T14:24:24.937Z</time>
</trkpt>
<trkpt lat="45.6159500" lon="8.1935600">
<time>2017-08-08T14:24:24.937Z</time>
</trkpt>
<trkpt lat="45.6160800" lon="8.1935000">
<time>2017-08-08T14:24:24.937Z</time>
</trkpt>
<trkpt lat="45.6162100" lon="8.1934400">
<time>2017-08-08T14:24:24.937Z</time>
</trkpt>
<trkpt lat="45.6162300" lon="8.1932200">
<time>2017-08-08T14:24:24.937Z</time>
</trkpt>
<trkpt lat="45.6162500" lon="8.1931900">
<time>2017-08-08T14:24:24.937Z</time>
</trkpt>
<trkpt lat="45.6162500" lon="8.1931700">
<time>2017-08-08T14:24:24.937Z</time>
</trkpt>
<trkpt lat="45.6162400" lon="8.1930600">
<time>2017-08-08T14:24:24.937Z</time>
</trkpt>
<trkpt lat="45.6161600" lon="8.1928900">
<time>2017-08-08T14:24:24.937Z</time>
</trkpt>
<trkpt lat="45.6161600" lon="8.1928400">
<time>2017-08-08T14:24:24.937Z</time>
</trkpt>
<trkpt lat="45.6161400" lon="8.1927500">
<time>2017-08-08T14:24:24.937Z</time>
</trkpt>
<trkpt lat="45.6161700" lon="8.1925000">
<time>2017-08-08T14:24:24.938Z</time>
</trkpt>
<trkpt lat="45.6163000" lon="8.1924500">
<time>2017-08-08T14:24:24.938Z</time>
</trkpt>
<trkpt lat="45.6163700" lon="8.1924400">
<time>2017-08-08T14:24:24.938Z</time>
</trkpt>
<trkpt lat="45.6165200" lon="8.1923300">
<time>2017-08-08T14:24:24.938Z</time>
</trkpt>
<trkpt lat="45.6165900" lon="8.1922300">
<time>2017-08-08T14:24:24.938Z</time>
</trkpt>
<trkpt lat="45.6166000" lon="8.1921800">
<time>2017-08-08T14:24:24.938Z</time>
</trkpt>
<trkpt lat="45.6166100" lon="8.1921300">
<time>2017-08-08T14:24:24.938Z</time>
</trkpt>
<trkpt lat="45.6166200" lon="8.1920700">
<time>2017-08-08T14:24:24.938Z</time>
</trkpt>
<trkpt lat="45.6166400" lon="8.1920300">
<time>2017-08-08T14:24:24.938Z</time>
</trkpt>
<trkpt lat="45.6166600" lon="8.1920000">
<time>2017-08-08T14:24:24.938Z</time>
</trkpt>
<trkpt lat="45.6166900" lon="8.1919400">
<time>2017-08-08T14:24:24.939Z</time>
</trkpt>
<trkpt lat="45.6167200" lon="8.1918800">
<time>2017-08-08T14:24:24.939Z</time>
</trkpt>
<trkpt lat="45.6167400" lon="8.1918300">
<time>2017-08-08T14:24:24.939Z</time>
</trkpt>
<trkpt lat="45.6167700" lon="8.1917800">
<time>2017-08-08T14:24:24.939Z</time>
</trkpt>
<trkpt lat="45.6168100" lon="8.1917100">
<time>2017-08-08T14:24:24.940Z</time>
</trkpt>
<trkpt lat="45.6168600" lon="8.1916500">
<time>2017-08-08T14:24:24.940Z</time>
</trkpt>
<trkpt lat="45.6168800" lon="8.1916200">
<time>2017-08-08T14:24:24.940Z</time>
</trkpt>
<trkpt lat="45.6169000" lon="8.1915600">
<time>2017-08-08T14:24:24.940Z</time>
</trkpt>
<trkpt lat="45.6169400" lon="8.1915300">
<time>2017-08-08T14:24:24.940Z</time>
</trkpt>
<trkpt lat="45.6169700" lon="8.1915000">
<time>2017-08-08T14:24:24.940Z</time>
</trkpt>
<trkpt lat="45.6170600" lon="8.1914500">
<time>2017-08-08T14:24:24.940Z</time>
</trkpt>
<trkpt lat="45.6171600" lon="8.1913800">
<time>2017-08-08T14:24:24.940Z</time>
</trkpt>
<trkpt lat="45.6172700" lon="8.1912800">
<time>2017-08-08T14:24:24.940Z</time>
</trkpt>
<trkpt lat="45.6173600" lon="8.1914100">
<time>2017-08-08T14:24:24.940Z</time>
</trkpt>
<trkpt lat="45.6174600" lon="8.1914900">
<time>2017-08-08T14:24:24.940Z</time>
</trkpt>
<trkpt lat="45.6175100" lon="8.1915000">
<time>2017-08-08T14:24:24.941Z</time>
</trkpt>
<trkpt lat="45.6175900" lon="8.1914800">
<time>2017-08-08T14:24:24.941Z</time>
</trkpt>
<trkpt lat="45.6176300" lon="8.1914500">
<time>2017-08-08T14:24:24.941Z</time>
</trkpt>
<trkpt lat="45.6176800" lon="8.1914000">
<time>2017-08-08T14:24:24.941Z</time>
</trkpt>
<trkpt lat="45.6177000" lon="8.1913900">
<time>2017-08-08T14:24:24.941Z</time>
</trkpt>
<trkpt lat="45.6177600" lon="8.1913300">
<time>2017-08-08T14:24:24.941Z</time>
</trkpt>
<trkpt lat="45.6178500" lon="8.1912100">
<time>2017-08-08T14:24:24.941Z</time>
</trkpt>
<trkpt lat="45.6178600" lon="8.1911600">
<time>2017-08-08T14:24:24.941Z</time>
</trkpt>
<trkpt lat="45.6178700" lon="8.1911000">
<time>2017-08-08T14:24:24.941Z</time>
</trkpt>
<trkpt lat="45.6179600" lon="8.1909700">
<time>2017-08-08T14:24:24.941Z</time>
</trkpt>
<trkpt lat="45.6180000" lon="8.1909300">
<time>2017-08-08T14:24:24.941Z</time>
</trkpt>
<trkpt lat="45.6180400" lon="8.1908600">
<time>2017-08-08T14:24:24.942Z</time>
</trkpt>
<trkpt lat="45.6181600" lon="8.1907300">
<time>2017-08-08T14:24:24.942Z</time>
</trkpt>
<trkpt lat="45.6182300" lon="8.1906800">
<time>2017-08-08T14:24:24.942Z</time>
</trkpt>
<trkpt lat="45.6182500" lon="8.1906700">
<time>2017-08-08T14:24:24.942Z</time>
</trkpt>
<trkpt lat="45.6184200" lon="8.1906000">
<time>2017-08-08T14:24:24.942Z</time>
</trkpt>
<trkpt lat="45.6185200" lon="8.1904700">
<time>2017-08-08T14:24:24.942Z</time>
</trkpt>
<trkpt lat="45.6185400" lon="8.1903300">
<time>2017-08-08T14:24:24.942Z</time>
</trkpt>
<trkpt lat="45.6185700" lon="8.1902900">
<time>2017-08-08T14:24:24.942Z</time>
</trkpt>
<trkpt lat="45.6186200" lon="8.1901100">
<time>2017-08-08T14:24:24.942Z</time>
</trkpt>
<trkpt lat="45.6187000" lon="8.1900000">
<time>2017-08-08T14:24:24.942Z</time>
</trkpt>
<trkpt lat="45.6187600" lon="8.1899900">
<time>2017-08-08T14:24:24.943Z</time>
</trkpt>
<trkpt lat="45.6188400" lon="8.1899100">
<time>2017-08-08T14:24:24.943Z</time>
</trkpt>
<trkpt lat="45.6189500" lon="8.1899800">
<time>2017-08-08T14:24:24.943Z</time>
</trkpt>
<trkpt lat="45.6189800" lon="8.1899900">
<time>2017-08-08T14:24:24.943Z</time>
</trkpt>
<trkpt lat="45.6190400" lon="8.1899700">
<time>2017-08-08T14:24:24.943Z</time>
</trkpt>
<trkpt lat="45.6191100" lon="8.1899600">
<time>2017-08-08T14:24:24.943Z</time>
</trkpt>
<trkpt lat="45.6192000" lon="8.1899900">
<time>2017-08-08T14:24:24.943Z</time>
</trkpt>
<trkpt lat="45.6193200" lon="8.1900700">
<time>2017-08-08T14:24:24.943Z</time>
</trkpt>
<trkpt lat="45.6193300" lon="8.1900800">
<time>2017-08-08T14:24:24.943Z</time>
</trkpt>
<trkpt lat="45.6193400" lon="8.1901400">
<time>2017-08-08T14:24:24.943Z</time>
</trkpt>
<trkpt lat="45.6193600" lon="8.1901900">
<time>2017-08-08T14:24:24.943Z</time>
</trkpt>
<trkpt lat="45.6194200" lon="8.1902800">
<time>2017-08-08T14:24:24.944Z</time>
</trkpt>
<trkpt lat="45.6195500" lon="8.1903900">
<time>2017-08-08T14:24:24.944Z</time>
</trkpt>
<trkpt lat="45.6196700" lon="8.1903900">
<time>2017-08-08T14:24:24.944Z</time>
</trkpt>
<trkpt lat="45.6197900" lon="8.1903500">
<time>2017-08-08T14:24:24.944Z</time>
</trkpt>
<trkpt lat="45.6199900" lon="8.1903600">
<time>2017-08-08T14:24:24.944Z</time>
</trkpt>
<trkpt lat="45.6201100" lon="8.1904100">
<time>2017-08-08T14:24:24.944Z</time>
</trkpt>
<trkpt lat="45.6201200" lon="8.1904500">
<time>2017-08-08T14:24:24.944Z</time>
</trkpt>
<trkpt lat="45.6201400" lon="8.1904600">
<time>2017-08-08T14:24:24.944Z</time>
</trkpt>
<trkpt lat="45.6201700" lon="8.1904700">
<time>2017-08-08T14:24:24.944Z</time>
</trkpt>
<trkpt lat="45.6202200" lon="8.1905200">
<time>2017-08-08T14:24:24.944Z</time>
</trkpt>
<trkpt lat="45.6202300" lon="8.1905600">
<time>2017-08-08T14:24:24.945Z</time>
</trkpt>
<trkpt lat="45.6202400" lon="8.1906000">
<time>2017-08-08T14:24:24.945Z</time>
</trkpt>
<trkpt lat="45.6202900" lon="8.1906300">
<time>2017-08-08T14:24:24.945Z</time>
</trkpt>
<trkpt lat="45.6203300" lon="8.1906000">
<time>2017-08-08T14:24:24.945Z</time>
</trkpt>
<trkpt lat="45.6204400" lon="8.1904400">
<time>2017-08-08T14:24:24.945Z</time>
</trkpt>
<trkpt lat="45.6205900" lon="8.1903700">
<time>2017-08-08T14:24:24.945Z</time>
</trkpt>
<trkpt lat="45.6206300" lon="8.1903700">
<time>2017-08-08T14:24:24.945Z</time>
</trkpt>
<trkpt lat="45.6207200" lon="8.1903700">
<time>2017-08-08T14:24:24.945Z</time>
</trkpt>
<trkpt lat="45.6208100" lon="8.1904400">
<time>2017-08-08T14:24:24.945Z</time>
</trkpt>
<trkpt lat="45.6208500" lon="8.1905600">
<time>2017-08-08T14:24:24.945Z</time>
</trkpt>
<trkpt lat="45.6208800" lon="8.1905900">
<time>2017-08-08T14:24:24.945Z</time>
</trkpt>
<trkpt lat="45.6209000" lon="8.1906300">
<time>2017-08-08T14:24:24.946Z</time>
</trkpt>
<trkpt lat="45.6209400" lon="8.1906400">
<time>2017-08-08T14:24:24.946Z</time>
</trkpt>
<trkpt lat="45.6210300" lon="8.1907300">
<time>2017-08-08T14:24:24.946Z</time>
</trkpt>
<trkpt lat="45.6210300" lon="8.1907400">
<time>2017-08-08T14:24:24.946Z</time>
</trkpt>
<trkpt lat="45.6210500" lon="8.1908900">
<time>2017-08-08T14:24:24.946Z</time>
</trkpt>
<trkpt lat="45.6210900" lon="8.1909800">
<time>2017-08-08T14:24:24.946Z</time>
</trkpt>
<trkpt lat="45.6211500" lon="8.1911100">
<time>2017-08-08T14:24:24.946Z</time>
</trkpt>
<trkpt lat="45.6212000" lon="8.1911700">
<time>2017-08-08T14:24:24.946Z</time>
</trkpt>
<trkpt lat="45.6213200" lon="8.1913800">
<time>2017-08-08T14:24:24.946Z</time>
</trkpt>
<trkpt lat="45.6214200" lon="8.1915800">
<time>2017-08-08T14:24:24.946Z</time>
</trkpt>
<trkpt lat="45.6214700" lon="8.1916600">
<time>2017-08-08T14:24:24.947Z</time>
</trkpt>
<trkpt lat="45.6216000" lon="8.1917200">
<time>2017-08-08T14:24:24.947Z</time>
</trkpt>
<trkpt lat="45.6217600" lon="8.1917500">
<time>2017-08-08T14:24:24.947Z</time>
</trkpt>
<trkpt lat="45.6219200" lon="8.1917500">
<time>2017-08-08T14:24:24.947Z</time>
</trkpt>
<trkpt lat="45.6220600" lon="8.1916900">
<time>2017-08-08T14:24:24.947Z</time>
</trkpt>
<trkpt lat="45.6221800" lon="8.1916000">
<time>2017-08-08T14:24:24.947Z</time>
</trkpt>
<trkpt lat="45.6222800" lon="8.1914000">
<time>2017-08-08T14:24:24.947Z</time>
</trkpt>
<trkpt lat="45.6223400" lon="8.1913600">
<time>2017-08-08T14:24:24.947Z</time>
</trkpt>
<trkpt lat="45.6224800" lon="8.1915100">
<time>2017-08-08T14:24:24.947Z</time>
</trkpt>
<trkpt lat="45.6225400" lon="8.1916800">
<time>2017-08-08T14:24:24.947Z</time>
</trkpt>
<trkpt lat="45.6225900" lon="8.1918300">
<time>2017-08-08T14:24:24.948Z</time>
</trkpt>
<trkpt lat="45.6227000" lon="8.1919700">
<time>2017-08-08T14:24:24.948Z</time>
</trkpt>
<trkpt lat="45.6227300" lon="8.1923300">
<time>2017-08-08T14:24:24.948Z</time>
</trkpt>
<trkpt lat="45.6227600" lon="8.1923800">
<time>2017-08-08T14:24:24.948Z</time>
</trkpt>
<trkpt lat="45.6228700" lon="8.1925500">
<time>2017-08-08T14:24:24.948Z</time>
</trkpt>
<trkpt lat="45.6229600" lon="8.1926900">
<time>2017-08-08T14:24:24.948Z</time>
</trkpt>
<trkpt lat="45.6230200" lon="8.1928200">
<time>2017-08-08T14:24:24.948Z</time>
</trkpt>
<trkpt lat="45.6231400" lon="8.1931000">
<time>2017-08-08T14:24:24.948Z</time>
</trkpt>
<trkpt lat="45.6232000" lon="8.1932800">
<time>2017-08-08T14:24:24.948Z</time>
</trkpt>
<trkpt lat="45.6232900" lon="8.1935100">
<time>2017-08-08T14:24:24.948Z</time>
</trkpt>
<trkpt lat="45.6233400" lon="8.1936900">
<time>2017-08-08T14:24:24.949Z</time>
</trkpt>
<trkpt lat="45.6233900" lon="8.1938000">
<time>2017-08-08T14:24:24.949Z</time>
</trkpt>
<trkpt lat="45.6234800" lon="8.1939000">
<time>2017-08-08T14:24:24.949Z</time>
</trkpt>
<trkpt lat="45.6236900" lon="8.1940500">
<time>2017-08-08T14:24:24.949Z</time>
</trkpt>
<trkpt lat="45.6238400" lon="8.1940600">
<time>2017-08-08T14:24:24.949Z</time>
</trkpt>
<trkpt lat="45.6239300" lon="8.1940100">
<time>2017-08-08T14:24:24.949Z</time>
</trkpt>
<trkpt lat="45.6240600" lon="8.1939300">
<time>2017-08-08T14:24:24.949Z</time>
</trkpt>
<trkpt lat="45.6241500" lon="8.1938700">
<time>2017-08-08T14:24:24.949Z</time>
</trkpt>
<trkpt lat="45.6242400" lon="8.1938300">
<time>2017-08-08T14:24:24.949Z</time>
</trkpt>
<trkpt lat="45.6243600" lon="8.1937600">
<time>2017-08-08T14:24:24.950Z</time>
</trkpt>
<trkpt lat="45.6244500" lon="8.1937000">
<time>2017-08-08T14:24:24.950Z</time>
</trkpt>
<trkpt lat="45.6246400" lon="8.1935400">
<time>2017-08-08T14:24:24.950Z</time>
</trkpt>
<trkpt lat="45.6247400" lon="8.1934500">
<time>2017-08-08T14:24:24.950Z</time>
</trkpt>
<trkpt lat="45.6248000" lon="8.1934200">
<time>2017-08-08T14:24:24.950Z</time>
</trkpt>
<trkpt lat="45.6248600" lon="8.1934000">
<time>2017-08-08T14:24:24.950Z</time>
</trkpt>
<trkpt lat="45.6250100" lon="8.1933800">
<time>2017-08-08T14:24:24.950Z</time>
</trkpt>
<trkpt lat="45.6251300" lon="8.1933200">
<time>2017-08-08T14:24:24.950Z</time>
</trkpt>
<trkpt lat="45.6251400" lon="8.1933600">
<time>2017-08-08T14:24:24.950Z</time>
</trkpt>
<trkpt lat="45.6251700" lon="8.1935000">
<time>2017-08-08T14:24:24.950Z</time>
</trkpt>
<trkpt lat="45.6252100" lon="8.1935700">
<time>2017-08-08T14:24:24.951Z</time>
</trkpt>
<trkpt lat="45.6252600" lon="8.1936300">
<time>2017-08-08T14:24:24.951Z</time>
</trkpt>
<trkpt lat="45.6253200" lon="8.1936700">
<time>2017-08-08T14:24:24.951Z</time>
</trkpt>
<trkpt lat="45.6253000" lon="8.1937600">
<time>2017-08-08T14:24:24.951Z</time>
</trkpt>
<trkpt lat="45.6252000" lon="8.1939800">
<time>2017-08-08T14:24:24.951Z</time>
</trkpt>
<trkpt lat="45.6252000" lon="8.1940500">
<time>2017-08-08T14:24:24.951Z</time>
</trkpt>
<trkpt lat="45.6252400" lon="8.1941700">
<time>2017-08-08T14:24:24.951Z</time>
</trkpt>
<trkpt lat="45.6252500" lon="8.1942800">
<time>2017-08-08T14:24:24.951Z</time>
</trkpt>
<trkpt lat="45.6252500" lon="8.1944300">
<time>2017-08-08T14:24:24.951Z</time>
</trkpt>
<trkpt lat="45.6252700" lon="8.1945400">
<time>2017-08-08T14:24:24.951Z</time>
</trkpt>
<trkpt lat="45.6252700" lon="8.1947400">
<time>2017-08-08T14:24:24.951Z</time>
</trkpt>
<trkpt lat="45.6253700" lon="8.1946900">
<time>2017-08-08T14:24:24.952Z</time>
</trkpt>
<trkpt lat="45.6255600" lon="8.1946500">
<time>2017-08-08T14:24:24.952Z</time>
</trkpt>
<trkpt lat="45.6259900" lon="8.1946000">
<time>2017-08-08T14:24:24.952Z</time>
</trkpt>
<trkpt lat="45.6263700" lon="8.1945900">
<time>2017-08-08T14:24:24.952Z</time>
</trkpt>
<trkpt lat="45.6265600" lon="8.1947500">
<time>2017-08-08T14:24:24.952Z</time>
</trkpt>
<trkpt lat="45.6268000" lon="8.1949700">
<time>2017-08-08T14:24:24.952Z</time>
</trkpt>
<trkpt lat="45.6267700" lon="8.1951200">
<time>2017-08-08T14:24:24.952Z</time>
</trkpt>
<trkpt lat="45.6268100" lon="8.1955600">
<time>2017-08-08T14:24:24.952Z</time>
</trkpt>
<trkpt lat="45.6268600" lon="8.1956900">
<time>2017-08-08T14:24:24.952Z</time>
</trkpt>
<trkpt lat="45.6269700" lon="8.1958200">
<time>2017-08-08T14:24:24.952Z</time>
</trkpt>
<trkpt lat="45.6271200" lon="8.1959500">
<time>2017-08-08T14:24:24.953Z</time>
</trkpt>
<trkpt lat="45.6271600" lon="8.1960300">
<time>2017-08-08T14:24:24.953Z</time>
</trkpt>
<trkpt lat="45.6272000" lon="8.1961100">
<time>2017-08-08T14:24:24.953Z</time>
</trkpt>
<trkpt lat="45.6272100" lon="8.1962000">
<time>2017-08-08T14:24:24.953Z</time>
</trkpt>
<trkpt lat="45.6272000" lon="8.1963000">
<time>2017-08-08T14:24:24.953Z</time>
</trkpt>
<trkpt lat="45.6271500" lon="8.1964400">
<time>2017-08-08T14:24:24.953Z</time>
</trkpt>
<trkpt lat="45.6271400" lon="8.1965800">
<time>2017-08-08T14:24:24.953Z</time>
</trkpt>
<trkpt lat="45.6271900" lon="8.1968500">
<time>2017-08-08T14:24:24.953Z</time>
</trkpt>
<trkpt lat="45.6272700" lon="8.1970300">
<time>2017-08-08T14:24:24.953Z</time>
</trkpt>
<trkpt lat="45.6273900" lon="8.1971900">
<time>2017-08-08T14:24:24.953Z</time>
</trkpt>
<trkpt lat="45.6274800" lon="8.1972800">
<time>2017-08-08T14:24:24.953Z</time>
</trkpt>
<trkpt lat="45.6276000" lon="8.1973400">
<time>2017-08-08T14:24:24.954Z</time>
</trkpt>
<trkpt lat="45.6277300" lon="8.1973800">
<time>2017-08-08T14:24:24.954Z</time>
</trkpt>
<trkpt lat="45.6280200" lon="8.1973900">
<time>2017-08-08T14:24:24.954Z</time>
</trkpt>
<trkpt lat="45.6280800" lon="8.1973900">
<time>2017-08-08T14:24:24.954Z</time>
</trkpt>
<trkpt lat="45.6281800" lon="8.1973800">
<time>2017-08-08T14:24:24.954Z</time>
</trkpt>
<trkpt lat="45.6283400" lon="8.1972300">
<time>2017-08-08T14:24:24.954Z</time>
</trkpt>
<trkpt lat="45.6283800" lon="8.1971900">
<time>2017-08-08T14:24:24.954Z</time>
</trkpt>
<trkpt lat="45.6284500" lon="8.1971200">
<time>2017-08-08T14:24:24.954Z</time>
</trkpt>
<trkpt lat="45.6285100" lon="8.1970400">
<time>2017-08-08T14:24:24.954Z</time>
</trkpt>
<trkpt lat="45.6285600" lon="8.1970400">
<time>2017-08-08T14:24:24.954Z</time>
</trkpt>
<trkpt lat="45.6285900" lon="8.1970600">
<time>2017-08-08T14:24:24.954Z</time>
</trkpt>
<trkpt lat="45.6286200" lon="8.1972700">
<time>2017-08-08T14:24:24.955Z</time>
</trkpt>
<trkpt lat="45.6286100" lon="8.1975800">
<time>2017-08-08T14:24:24.955Z</time>
</trkpt>
<trkpt lat="45.6286300" lon="8.1978300">
<time>2017-08-08T14:24:24.955Z</time>
</trkpt>
<trkpt lat="45.6286400" lon="8.1980800">
<time>2017-08-08T14:24:24.955Z</time>
</trkpt>
<trkpt lat="45.6287100" lon="8.1982400">
<time>2017-08-08T14:24:24.955Z</time>
</trkpt>
<trkpt lat="45.6288400" lon="8.1982800">
<time>2017-08-08T14:24:24.955Z</time>
</trkpt>
<trkpt lat="45.6290300" lon="8.1982300">
<time>2017-08-08T14:24:24.955Z</time>
</trkpt>
<trkpt lat="45.6292400" lon="8.1981500">
<time>2017-08-08T14:24:24.955Z</time>
</trkpt>
<trkpt lat="45.6294100" lon="8.1982600">
<time>2017-08-08T14:24:24.955Z</time>
</trkpt>
<trkpt lat="45.6296400" lon="8.1985600">
<time>2017-08-08T14:24:24.955Z</time>
</trkpt>
<trkpt lat="45.6296500" lon="8.1985700">
<time>2017-08-08T14:24:24.956Z</time>
</trkpt>
<trkpt lat="45.6297200" lon="8.1986300">
<time>2017-08-08T14:24:24.956Z</time>
</trkpt>
<trkpt lat="45.6297800" lon="8.1986700">
<time>2017-08-08T14:24:24.956Z</time>
</trkpt>
<trkpt lat="45.6299100" lon="8.1986800">
<time>2017-08-08T14:24:24.956Z</time>
</trkpt>
<trkpt lat="45.6299700" lon="8.1987200">
<time>2017-08-08T14:24:24.956Z</time>
</trkpt>
<trkpt lat="45.6300400" lon="8.1987800">
<time>2017-08-08T14:24:24.956Z</time>
</trkpt>
<trkpt lat="45.6302100" lon="8.1989500">
<time>2017-08-08T14:24:24.956Z</time>
</trkpt>
<trkpt lat="45.6304100" lon="8.1991500">
<time>2017-08-08T14:24:24.956Z</time>
</trkpt>
<trkpt lat="45.6305500" lon="8.1991800">
<time>2017-08-08T14:24:24.956Z</time>
</trkpt>
<trkpt lat="45.6307000" lon="8.1992000">
<time>2017-08-08T14:24:24.956Z</time>
</trkpt>
<trkpt lat="45.6308200" lon="8.1992100">
<time>2017-08-08T14:24:24.956Z</time>
</trkpt>
<trkpt lat="45.6310700" lon="8.1992700">
<time>2017-08-08T14:24:24.957Z</time>
</trkpt>
<trkpt lat="45.6313600" lon="8.1993700">
<time>2017-08-08T14:24:24.957Z</time>
</trkpt>
<trkpt lat="45.6315300" lon="8.1994200">
<time>2017-08-08T14:24:24.957Z</time>
</trkpt>
<trkpt lat="45.6317200" lon="8.1994900">
<time>2017-08-08T14:24:24.957Z</time>
</trkpt>
<trkpt lat="45.6318700" lon="8.1995700">
<time>2017-08-08T14:24:24.957Z</time>
</trkpt>
<trkpt lat="45.6319800" lon="8.1996700">
<time>2017-08-08T14:24:24.957Z</time>
</trkpt>
<trkpt lat="45.6320500" lon="8.1997600">
<time>2017-08-08T14:24:24.957Z</time>
</trkpt>
<trkpt lat="45.6321100" lon="8.1997800">
<time>2017-08-08T14:24:24.957Z</time>
</trkpt>
<trkpt lat="45.6321600" lon="8.1997600">
<time>2017-08-08T14:24:24.957Z</time>
</trkpt>
<trkpt lat="45.6322200" lon="8.1997300">
<time>2017-08-08T14:24:24.957Z</time>
</trkpt>
<trkpt lat="45.6323300" lon="8.1996400">
<time>2017-08-08T14:24:24.957Z</time>
</trkpt>
<trkpt lat="45.6324100" lon="8.1996100">
<time>2017-08-08T14:24:24.958Z</time>
</trkpt>
<trkpt lat="45.6326700" lon="8.1996200">
<time>2017-08-08T14:24:24.958Z</time>
</trkpt>
<trkpt lat="45.6328100" lon="8.1996000">
<time>2017-08-08T14:24:24.958Z</time>
</trkpt>
<trkpt lat="45.6329000" lon="8.1995400">
<time>2017-08-08T14:24:24.958Z</time>
</trkpt>
<trkpt lat="45.6329500" lon="8.1995000">
<time>2017-08-08T14:24:24.958Z</time>
</trkpt>
<trkpt lat="45.6331300" lon="8.1994800">
<time>2017-08-08T14:24:24.958Z</time>
</trkpt>
<trkpt lat="45.6333000" lon="8.1994300">
<time>2017-08-08T14:24:24.958Z</time>
</trkpt>
<trkpt lat="45.6334300" lon="8.1993100">
<time>2017-08-08T14:24:24.958Z</time>
</trkpt>
<trkpt lat="45.6335400" lon="8.1991200">
<time>2017-08-08T14:24:24.958Z</time>
</trkpt>
<trkpt lat="45.6336600" lon="8.1989900">
<time>2017-08-08T14:24:24.958Z</time>
</trkpt>
<trkpt lat="45.6338400" lon="8.1988800">
<time>2017-08-08T14:24:24.959Z</time>
</trkpt>
<trkpt lat="45.6339200" lon="8.1988800">
<time>2017-08-08T14:24:24.959Z</time>
</trkpt>
<trkpt lat="45.6340100" lon="8.1989200">
<time>2017-08-08T14:24:24.959Z</time>
</trkpt>
<trkpt lat="45.6340500" lon="8.1989200">
<time>2017-08-08T14:24:24.959Z</time>
</trkpt>
<trkpt lat="45.6341200" lon="8.1988500">
<time>2017-08-08T14:24:24.959Z</time>
</trkpt>
<trkpt lat="45.6343600" lon="8.1987500">
<time>2017-08-08T14:24:24.959Z</time>
</trkpt>
<trkpt lat="45.6345900" lon="8.1987100">
<time>2017-08-08T14:24:24.959Z</time>
</trkpt>
<trkpt lat="45.6347100" lon="8.1987000">
<time>2017-08-08T14:24:24.959Z</time>
</trkpt>
<trkpt lat="45.6348100" lon="8.1986900">
<time>2017-08-08T14:24:24.959Z</time>
</trkpt>
<trkpt lat="45.6348800" lon="8.1987800">
<time>2017-08-08T14:24:24.960Z</time>
</trkpt>
<trkpt lat="45.6350400" lon="8.1989100">
<time>2017-08-08T14:24:24.960Z</time>
</trkpt>
<trkpt lat="45.6351600" lon="8.1989300">
<time>2017-08-08T14:24:24.960Z</time>
</trkpt>
<trkpt lat="45.6353500" lon="8.1989900">
<time>2017-08-08T14:24:24.960Z</time>
</trkpt>
<trkpt lat="45.6354500" lon="8.1992800">
<time>2017-08-08T14:24:24.960Z</time>
</trkpt>
<trkpt lat="45.6355900" lon="8.1997100">
<time>2017-08-08T14:24:24.960Z</time>
</trkpt>
<trkpt lat="45.6358000" lon="8.2001200">
<time>2017-08-08T14:24:24.960Z</time>
</trkpt>
<trkpt lat="45.6360200" lon="8.2003500">
<time>2017-08-08T14:24:24.960Z</time>
</trkpt>
<trkpt lat="45.6361800" lon="8.2003100">
<time>2017-08-08T14:24:24.960Z</time>
</trkpt>
<trkpt lat="45.6362800" lon="8.2003600">
<time>2017-08-08T14:24:24.960Z</time>
</trkpt>
<trkpt lat="45.6363300" lon="8.2003800">
<time>2017-08-08T14:24:24.961Z</time>
</trkpt>
<trkpt lat="45.6363800" lon="8.2003900">
<time>2017-08-08T14:24:24.961Z</time>
</trkpt>
<trkpt lat="45.6364600" lon="8.2004300">
<time>2017-08-08T14:24:24.961Z</time>
</trkpt>
<trkpt lat="45.6365400" lon="8.2004500">
<time>2017-08-08T14:24:24.961Z</time>
</trkpt>
<trkpt lat="45.6366400" lon="8.2005000">
<time>2017-08-08T14:24:24.961Z</time>
</trkpt>
<trkpt lat="45.6366700" lon="8.2005200">
<time>2017-08-08T14:24:24.961Z</time>
</trkpt>
<trkpt lat="45.6368000" lon="8.2005600">
<time>2017-08-08T14:24:24.961Z</time>
</trkpt>
<trkpt lat="45.6368100" lon="8.2005800">
<time>2017-08-08T14:24:24.961Z</time>
</trkpt>
<trkpt lat="45.6369200" lon="8.2006000">
<time>2017-08-08T14:24:24.961Z</time>
</trkpt>
<trkpt lat="45.6370100" lon="8.2007300">
<time>2017-08-08T14:24:24.961Z</time>
</trkpt>
<trkpt lat="45.6370600" lon="8.2007900">
<time>2017-08-08T14:24:24.961Z</time>
</trkpt>
<trkpt lat="45.6371500" lon="8.2010100">
<time>2017-08-08T14:24:24.962Z</time>
</trkpt>
<trkpt lat="45.6372400" lon="8.2010400">
<time>2017-08-08T14:24:24.962Z</time>
</trkpt>
<trkpt lat="45.6373100" lon="8.2010900">
<time>2017-08-08T14:24:24.962Z</time>
</trkpt>
<trkpt lat="45.6373900" lon="8.2011600">
<time>2017-08-08T14:24:24.962Z</time>
</trkpt>
<trkpt lat="45.6374800" lon="8.2011800">
<time>2017-08-08T14:24:24.962Z</time>
</trkpt>
<trkpt lat="45.6375500" lon="8.2012500">
<time>2017-08-08T14:24:24.962Z</time>
</trkpt>
<trkpt lat="45.6375900" lon="8.2012900">
<time>2017-08-08T14:24:24.962Z</time>
</trkpt>
<trkpt lat="45.6376400" lon="8.2013300">
<time>2017-08-08T14:24:24.962Z</time>
</trkpt>
<trkpt lat="45.6377000" lon="8.2013300">
<time>2017-08-08T14:24:24.962Z</time>
</trkpt>
<trkpt lat="45.6377200" lon="8.2013600">
<time>2017-08-08T14:24:24.962Z</time>
</trkpt>
<trkpt lat="45.6377400" lon="8.2014700">
<time>2017-08-08T14:24:24.963Z</time>
</trkpt>
<trkpt lat="45.6377200" lon="8.2016800">
<time>2017-08-08T14:24:24.963Z</time>
</trkpt>
<trkpt lat="45.6376700" lon="8.2018000">
<time>2017-08-08T14:24:24.963Z</time>
</trkpt>
<trkpt lat="45.6377300" lon="8.2018600">
<time>2017-08-08T14:24:24.963Z</time>
</trkpt>
<trkpt lat="45.6378300" lon="8.2019500">
<time>2017-08-08T14:24:24.963Z</time>
</trkpt>
<trkpt lat="45.6379300" lon="8.2019900">
<time>2017-08-08T14:24:24.963Z</time>
</trkpt>
<trkpt lat="45.6381000" lon="8.2020500">
<time>2017-08-08T14:24:24.963Z</time>
</trkpt>
<trkpt lat="45.6382400" lon="8.2021800">
<time>2017-08-08T14:24:24.963Z</time>
</trkpt>
<trkpt lat="45.6382800" lon="8.2021700">
<time>2017-08-08T14:24:24.963Z</time>
</trkpt>
<trkpt lat="45.6384200" lon="8.2021800">
<time>2017-08-08T14:24:24.963Z</time>
</trkpt>
<trkpt lat="45.6385200" lon="8.2021200">
<time>2017-08-08T14:24:24.964Z</time>
</trkpt>
<trkpt lat="45.6386500" lon="8.2020300">
<time>2017-08-08T14:24:24.964Z</time>
</trkpt>
<trkpt lat="45.6387100" lon="8.2020000">
<time>2017-08-08T14:24:24.964Z</time>
</trkpt>
<trkpt lat="45.6388000" lon="8.2020300">
<time>2017-08-08T14:24:24.964Z</time>
</trkpt>
<trkpt lat="45.6388100" lon="8.2020400">
<time>2017-08-08T14:24:24.964Z</time>
</trkpt>
<trkpt lat="45.6389400" lon="8.2020600">
<time>2017-08-08T14:24:24.964Z</time>
</trkpt>
<trkpt lat="45.6390300" lon="8.2020700">
<time>2017-08-08T14:24:24.964Z</time>
</trkpt>
<trkpt lat="45.6391400" lon="8.2020800">
<time>2017-08-08T14:24:24.964Z</time>
</trkpt>
<trkpt lat="45.6391800" lon="8.2021100">
<time>2017-08-08T14:24:24.964Z</time>
</trkpt>
<trkpt lat="45.6392400" lon="8.2021300">
<time>2017-08-08T14:24:24.964Z</time>
</trkpt>
<trkpt lat="45.6392800" lon="8.2021300">
<time>2017-08-08T14:24:24.964Z</time>
</trkpt>
<trkpt lat="45.6393600" lon="8.2021500">
<time>2017-08-08T14:24:24.965Z</time>
</trkpt>
<trkpt lat="45.6394400" lon="8.2021400">
<time>2017-08-08T14:24:24.965Z</time>
</trkpt>
<trkpt lat="45.6395000" lon="8.2021100">
<time>2017-08-08T14:24:24.965Z</time>
</trkpt>
<trkpt lat="45.6395200" lon="8.2021000">
<time>2017-08-08T14:24:24.965Z</time>
</trkpt>
<trkpt lat="45.6396300" lon="8.2021200">
<time>2017-08-08T14:24:24.965Z</time>
</trkpt>
<trkpt lat="45.6397100" lon="8.2021300">
<time>2017-08-08T14:24:24.965Z</time>
</trkpt>
<trkpt lat="45.6398800" lon="8.2021300">
<time>2017-08-08T14:24:24.965Z</time>
</trkpt>
<trkpt lat="45.6399600" lon="8.2021300">
<time>2017-08-08T14:24:24.965Z</time>
</trkpt>
<trkpt lat="45.6402200" lon="8.2021300">
<time>2017-08-08T14:24:24.965Z</time>
</trkpt>
<trkpt lat="45.6402700" lon="8.2021700">
<time>2017-08-08T14:24:24.965Z</time>
</trkpt>
<trkpt lat="45.6403600" lon="8.2021000">
<time>2017-08-08T14:24:24.965Z</time>
</trkpt>
<trkpt lat="45.6403900" lon="8.2021100">
<time>2017-08-08T14:24:24.966Z</time>
</trkpt>
<trkpt lat="45.6404100" lon="8.2021200">
<time>2017-08-08T14:24:24.966Z</time>
</trkpt>
<trkpt lat="45.6404500" lon="8.2021200">
<time>2017-08-08T14:24:24.966Z</time>
</trkpt>
<trkpt lat="45.6405000" lon="8.2021400">
<time>2017-08-08T14:24:24.966Z</time>
</trkpt>
<trkpt lat="45.6405500" lon="8.2021400">
<time>2017-08-08T14:24:24.966Z</time>
</trkpt>
<trkpt lat="45.6405700" lon="8.2021400">
<time>2017-08-08T14:24:24.966Z</time>
</trkpt>
<trkpt lat="45.6406400" lon="8.2021500">
<time>2017-08-08T14:24:24.966Z</time>
</trkpt>
<trkpt lat="45.6406500" lon="8.2021600">
<time>2017-08-08T14:24:24.966Z</time>
</trkpt>
<trkpt lat="45.6407000" lon="8.2021800">
<time>2017-08-08T14:24:24.966Z</time>
</trkpt>
<trkpt lat="45.6407400" lon="8.2022100">
<time>2017-08-08T14:24:24.966Z</time>
</trkpt>
<trkpt lat="45.6408100" lon="8.2021900">
<time>2017-08-08T14:24:24.967Z</time>
</trkpt>
<trkpt lat="45.6408400" lon="8.2022300">
<time>2017-08-08T14:24:24.967Z</time>
</trkpt>
<trkpt lat="45.6409000" lon="8.2022600">
<time>2017-08-08T14:24:24.967Z</time>
</trkpt>
<trkpt lat="45.6410600" lon="8.2021900">
<time>2017-08-08T14:24:24.967Z</time>
</trkpt>
<trkpt lat="45.6411700" lon="8.2021500">
<time>2017-08-08T14:24:24.967Z</time>
</trkpt>
<trkpt lat="45.6412200" lon="8.2020600">
<time>2017-08-08T14:24:24.967Z</time>
</trkpt>
<trkpt lat="45.6413100" lon="8.2019400">
<time>2017-08-08T14:24:24.967Z</time>
</trkpt>
<trkpt lat="45.6413500" lon="8.2019200">
<time>2017-08-08T14:24:24.967Z</time>
</trkpt>
<trkpt lat="45.6414200" lon="8.2019000">
<time>2017-08-08T14:24:24.967Z</time>
</trkpt>
<trkpt lat="45.6414800" lon="8.2018900">
<time>2017-08-08T14:24:24.967Z</time>
</trkpt>
<trkpt lat="45.6415700" lon="8.2018700">
<time>2017-08-08T14:24:24.967Z</time>
</trkpt>
<trkpt lat="45.6416800" lon="8.2018700">
<time>2017-08-08T14:24:24.968Z</time>
</trkpt>
<trkpt lat="45.6417100" lon="8.2018800">
<time>2017-08-08T14:24:24.968Z</time>
</trkpt>
<trkpt lat="45.6418700" lon="8.2016900">
<time>2017-08-08T14:24:24.968Z</time>
</trkpt>
<trkpt lat="45.6419700" lon="8.2015900">
<time>2017-08-08T14:24:24.968Z</time>
</trkpt>
<trkpt lat="45.6420400" lon="8.2015600">
<time>2017-08-08T14:24:24.968Z</time>
</trkpt>
<trkpt lat="45.6420900" lon="8.2015100">
<time>2017-08-08T14:24:24.968Z</time>
</trkpt>
<trkpt lat="45.6421400" lon="8.2014700">
<time>2017-08-08T14:24:24.968Z</time>
</trkpt>
<trkpt lat="45.6422000" lon="8.2014600">
<time>2017-08-08T14:24:24.968Z</time>
</trkpt>
<trkpt lat="45.6423100" lon="8.2015000">
<time>2017-08-08T14:24:24.969Z</time>
</trkpt>
<trkpt lat="45.6423500" lon="8.2015100">
<time>2017-08-08T14:24:24.969Z</time>
</trkpt>
<trkpt lat="45.6424800" lon="8.2013600">
<time>2017-08-08T14:24:24.969Z</time>
</trkpt>
<trkpt lat="45.6425500" lon="8.2012700">
<time>2017-08-08T14:24:24.969Z</time>
</trkpt>
<trkpt lat="45.6426500" lon="8.2011500">
<time>2017-08-08T14:24:24.969Z</time>
</trkpt>
<trkpt lat="45.6427400" lon="8.2010600">
<time>2017-08-08T14:24:24.969Z</time>
</trkpt>
<trkpt lat="45.6428100" lon="8.2010100">
<time>2017-08-08T14:24:24.969Z</time>
</trkpt>
<trkpt lat="45.6428600" lon="8.2010300">
<time>2017-08-08T14:24:24.969Z</time>
</trkpt>
<trkpt lat="45.6429000" lon="8.2010300">
<time>2017-08-08T14:24:24.969Z</time>
</trkpt>
<trkpt lat="45.6429700" lon="8.2009600">
<time>2017-08-08T14:24:24.969Z</time>
</trkpt>
<trkpt lat="45.6430100" lon="8.2008800">
<time>2017-08-08T14:24:24.969Z</time>
</trkpt>
<trkpt lat="45.6430200" lon="8.2008800">
<time>2017-08-08T14:24:24.970Z</time>
</trkpt>
<trkpt lat="45.6431200" lon="8.2008000">
<time>2017-08-08T14:24:24.970Z</time>
</trkpt>
<trkpt lat="45.6431800" lon="8.2007700">
<time>2017-08-08T14:24:24.970Z</time>
</trkpt>
<trkpt lat="45.6432300" lon="8.2007500">
<time>2017-08-08T14:24:24.970Z</time>
</trkpt>
<trkpt lat="45.6432700" lon="8.2007100">
<time>2017-08-08T14:24:24.970Z</time>
</trkpt>
<trkpt lat="45.6433800" lon="8.2005900">
<time>2017-08-08T14:24:24.970Z</time>
</trkpt>
<trkpt lat="45.6434300" lon="8.2005100">
<time>2017-08-08T14:24:24.970Z</time>
</trkpt>
<trkpt lat="45.6434900" lon="8.2003900">
<time>2017-08-08T14:24:24.970Z</time>
</trkpt>
<trkpt lat="45.6435500" lon="8.2003300">
<time>2017-08-08T14:24:24.970Z</time>
</trkpt>
<trkpt lat="45.6436000" lon="8.2002900">
<time>2017-08-08T14:24:24.970Z</time>
</trkpt>
<trkpt lat="45.6436700" lon="8.2001100">
<time>2017-08-08T14:24:24.970Z</time>
</trkpt>
<trkpt lat="45.6437100" lon="8.2000700">
<time>2017-08-08T14:24:24.971Z</time>
</trkpt>
<trkpt lat="45.6437200" lon="8.2000200">
<time>2017-08-08T14:24:24.971Z</time>
</trkpt>
<trkpt lat="45.6437200" lon="8.2000000">
<time>2017-08-08T14:24:24.971Z</time>
</trkpt>
<trkpt lat="45.6437800" lon="8.1999500">
<time>2017-08-08T14:24:24.971Z</time>
</trkpt>
<trkpt lat="45.6438500" lon="8.1999100">
<time>2017-08-08T14:24:24.971Z</time>
</trkpt>
<trkpt lat="45.6439600" lon="8.1998600">
<time>2017-08-08T14:24:24.971Z</time>
</trkpt>
<trkpt lat="45.6440500" lon="8.1998100">
<time>2017-08-08T14:24:24.971Z</time>
</trkpt>
<trkpt lat="45.6442200" lon="8.1998500">
<time>2017-08-08T14:24:24.971Z</time>
</trkpt>
<trkpt lat="45.6443000" lon="8.1998700">
<time>2017-08-08T14:24:24.971Z</time>
</trkpt>
<trkpt lat="45.6443800" lon="8.1998800">
<time>2017-08-08T14:24:24.971Z</time>
</trkpt>
<trkpt lat="45.6444600" lon="8.1999600">
<time>2017-08-08T14:24:24.971Z</time>
</trkpt>
<trkpt lat="45.6444700" lon="8.1999800">
<time>2017-08-08T14:24:24.972Z</time>
</trkpt>
<trkpt lat="45.6444800" lon="8.1999900">
<time>2017-08-08T14:24:24.972Z</time>
</trkpt>
<trkpt lat="45.6446100" lon="8.1999900">
<time>2017-08-08T14:24:24.972Z</time>
</trkpt>
<trkpt lat="45.6447100" lon="8.2000000">
<time>2017-08-08T14:24:24.972Z</time>
</trkpt>
<trkpt lat="45.6448200" lon="8.2000900">
<time>2017-08-08T14:24:24.972Z</time>
</trkpt>
<trkpt lat="45.6448600" lon="8.2000300">
<time>2017-08-08T14:24:24.972Z</time>
</trkpt>
<trkpt lat="45.6450100" lon="8.1999300">
<time>2017-08-08T14:24:24.972Z</time>
</trkpt>
<trkpt lat="45.6451500" lon="8.1998900">
<time>2017-08-08T14:24:24.972Z</time>
</trkpt>
<trkpt lat="45.6452000" lon="8.1998500">
<time>2017-08-08T14:24:24.972Z</time>
</trkpt>
<trkpt lat="45.6452800" lon="8.1998200">
<time>2017-08-08T14:24:24.972Z</time>
</trkpt>
<trkpt lat="45.6453500" lon="8.1997700">
<time>2017-08-08T14:24:24.972Z</time>
</trkpt>
<trkpt lat="45.6454000" lon="8.1997300">
<time>2017-08-08T14:24:24.973Z</time>
</trkpt>
<trkpt lat="45.6456200" lon="8.1997500">
<time>2017-08-08T14:24:24.973Z</time>
</trkpt>
<trkpt lat="45.6456800" lon="8.1996900">
<time>2017-08-08T14:24:24.973Z</time>
</trkpt>
<trkpt lat="45.6457700" lon="8.1996700">
<time>2017-08-08T14:24:24.973Z</time>
</trkpt>
<trkpt lat="45.6458500" lon="8.1996300">
<time>2017-08-08T14:24:24.973Z</time>
</trkpt>
<trkpt lat="45.6460200" lon="8.1995500">
<time>2017-08-08T14:24:24.973Z</time>
</trkpt>
<trkpt lat="45.6461500" lon="8.1995900">
<time>2017-08-08T14:24:24.973Z</time>
</trkpt>
<trkpt lat="45.6462200" lon="8.1995700">
<time>2017-08-08T14:24:24.973Z</time>
</trkpt>
<trkpt lat="45.6463300" lon="8.1996100">
<time>2017-08-08T14:24:24.973Z</time>
</trkpt>
<trkpt lat="45.6464000" lon="8.1995700">
<time>2017-08-08T14:24:24.973Z</time>
</trkpt>
<trkpt lat="45.6464800" lon="8.1994600">
<time>2017-08-08T14:24:24.973Z</time>
</trkpt>
<trkpt lat="45.6464800" lon="8.1993600">
<time>2017-08-08T14:24:24.974Z</time>
</trkpt>
<trkpt lat="45.6465000" lon="8.1992700">
<time>2017-08-08T14:24:24.974Z</time>
</trkpt>
<trkpt lat="45.6465600" lon="8.1991400">
<time>2017-08-08T14:24:24.974Z</time>
</trkpt>
<trkpt lat="45.6466400" lon="8.1990500">
<time>2017-08-08T14:24:24.974Z</time>
</trkpt>
<trkpt lat="45.6466700" lon="8.1990300">
<time>2017-08-08T14:24:24.974Z</time>
</trkpt>
<trkpt lat="45.6467200" lon="8.1990300">
<time>2017-08-08T14:24:24.974Z</time>
</trkpt>
<trkpt lat="45.6467600" lon="8.1990200">
<time>2017-08-08T14:24:24.974Z</time>
</trkpt>
<trkpt lat="45.6468000" lon="8.1990100">
<time>2017-08-08T14:24:24.974Z</time>
</trkpt>
<trkpt lat="45.6468400" lon="8.1990100">
<time>2017-08-08T14:24:24.974Z</time>
</trkpt>
<trkpt lat="45.6469400" lon="8.1991100">
<time>2017-08-08T14:24:24.974Z</time>
</trkpt>
<trkpt lat="45.6470400" lon="8.1991700">
<time>2017-08-08T14:24:24.975Z</time>
</trkpt>
<trkpt lat="45.6471000" lon="8.1992200">
<time>2017-08-08T14:24:24.975Z</time>
</trkpt>
<trkpt lat="45.6471600" lon="8.1992300">
<time>2017-08-08T14:24:24.975Z</time>
</trkpt>
<trkpt lat="45.6472300" lon="8.1992400">
<time>2017-08-08T14:24:24.975Z</time>
</trkpt>
<trkpt lat="45.6472600" lon="8.1992600">
<time>2017-08-08T14:24:24.975Z</time>
</trkpt>
<trkpt lat="45.6473200" lon="8.1992600">
<time>2017-08-08T14:24:24.975Z</time>
</trkpt>
<trkpt lat="45.6473900" lon="8.1993000">
<time>2017-08-08T14:24:24.975Z</time>
</trkpt>
<trkpt lat="45.6474800" lon="8.1993100">
<time>2017-08-08T14:24:24.975Z</time>
</trkpt>
<trkpt lat="45.6475400" lon="8.1993400">
<time>2017-08-08T14:24:24.975Z</time>
</trkpt>
<trkpt lat="45.6476100" lon="8.1993700">
<time>2017-08-08T14:24:24.975Z</time>
</trkpt>
<trkpt lat="45.6476500" lon="8.1993900">
<time>2017-08-08T14:24:24.975Z</time>
</trkpt>
<trkpt lat="45.6477100" lon="8.1994000">
<time>2017-08-08T14:24:24.976Z</time>
</trkpt>
<trkpt lat="45.6477700" lon="8.1993600">
<time>2017-08-08T14:24:24.976Z</time>
</trkpt>
<trkpt lat="45.6478500" lon="8.1993400">
<time>2017-08-08T14:24:24.976Z</time>
</trkpt>
<trkpt lat="45.6478900" lon="8.1993100">
<time>2017-08-08T14:24:24.976Z</time>
</trkpt>
<trkpt lat="45.6479300" lon="8.1992200">
<time>2017-08-08T14:24:24.976Z</time>
</trkpt>
<trkpt lat="45.6480500" lon="8.1992900">
<time>2017-08-08T14:24:24.976Z</time>
</trkpt>
<trkpt lat="45.6481400" lon="8.1993700">
<time>2017-08-08T14:24:24.976Z</time>
</trkpt>
<trkpt lat="45.6482000" lon="8.1994600">
<time>2017-08-08T14:24:24.976Z</time>
</trkpt>
<trkpt lat="45.6482800" lon="8.1995900">
<time>2017-08-08T14:24:24.976Z</time>
</trkpt>
<trkpt lat="45.6483900" lon="8.1996900">
<time>2017-08-08T14:24:24.976Z</time>
</trkpt>
<trkpt lat="45.6485100" lon="8.1997900">
<time>2017-08-08T14:24:24.976Z</time>
</trkpt>
<trkpt lat="45.6485800" lon="8.1997300">
<time>2017-08-08T14:24:24.977Z</time>
</trkpt>
<trkpt lat="45.6486400" lon="8.1996900">
<time>2017-08-08T14:24:24.977Z</time>
</trkpt>
<trkpt lat="45.6487100" lon="8.1996400">
<time>2017-08-08T14:24:24.977Z</time>
</trkpt>
<trkpt lat="45.6487600" lon="8.1996100">
<time>2017-08-08T14:24:24.977Z</time>
</trkpt>
<trkpt lat="45.6488500" lon="8.1995700">
<time>2017-08-08T14:24:24.977Z</time>
</trkpt>
<trkpt lat="45.6488900" lon="8.1995500">
<time>2017-08-08T14:24:24.977Z</time>
</trkpt>
<trkpt lat="45.6489400" lon="8.1995700">
<time>2017-08-08T14:24:24.977Z</time>
</trkpt>
<trkpt lat="45.6490000" lon="8.1996300">
<time>2017-08-08T14:24:24.977Z</time>
</trkpt>
<trkpt lat="45.6490800" lon="8.1996900">
<time>2017-08-08T14:24:24.977Z</time>
</trkpt>
<trkpt lat="45.6491400" lon="8.1997600">
<time>2017-08-08T14:24:24.977Z</time>
</trkpt>
<trkpt lat="45.6492100" lon="8.1997900">
<time>2017-08-08T14:24:24.978Z</time>
</trkpt>
<trkpt lat="45.6492900" lon="8.1997800">
<time>2017-08-08T14:24:24.978Z</time>
</trkpt>
<trkpt lat="45.6494400" lon="8.1997100">
<time>2017-08-08T14:24:24.978Z</time>
</trkpt>
<trkpt lat="45.6495200" lon="8.1996800">
<time>2017-08-08T14:24:24.978Z</time>
</trkpt>
<trkpt lat="45.6495500" lon="8.1996800">
<time>2017-08-08T14:24:24.978Z</time>
</trkpt>
<trkpt lat="45.6496000" lon="8.1996600">
<time>2017-08-08T14:24:24.978Z</time>
</trkpt>
<trkpt lat="45.6497400" lon="8.1996500">
<time>2017-08-08T14:24:24.978Z</time>
</trkpt>
<trkpt lat="45.6498100" lon="8.1996400">
<time>2017-08-08T14:24:24.978Z</time>
</trkpt>
<trkpt lat="45.6498600" lon="8.1996100">
<time>2017-08-08T14:24:24.979Z</time>
</trkpt>
<trkpt lat="45.6499000" lon="8.1995800">
<time>2017-08-08T14:24:24.979Z</time>
</trkpt>
<trkpt lat="45.6499600" lon="8.1995700">
<time>2017-08-08T14:24:24.979Z</time>
</trkpt>
<trkpt lat="45.6500800" lon="8.1995300">
<time>2017-08-08T14:24:24.979Z</time>
</trkpt>
<trkpt lat="45.6501200" lon="8.1995500">
<time>2017-08-08T14:24:24.979Z</time>
</trkpt>
<trkpt lat="45.6501800" lon="8.1996200">
<time>2017-08-08T14:24:24.979Z</time>
</trkpt>
<trkpt lat="45.6503000" lon="8.1997600">
<time>2017-08-08T14:24:24.979Z</time>
</trkpt>
<trkpt lat="45.6504100" lon="8.1998400">
<time>2017-08-08T14:24:24.979Z</time>
</trkpt>
<trkpt lat="45.6505100" lon="8.1999800">
<time>2017-08-08T14:24:24.979Z</time>
</trkpt>
<trkpt lat="45.6506700" lon="8.2000100">
<time>2017-08-08T14:24:24.979Z</time>
</trkpt>
<trkpt lat="45.6507400" lon="8.2000700">
<time>2017-08-08T14:24:24.979Z</time>
</trkpt>
<trkpt lat="45.6508000" lon="8.2001700">
<time>2017-08-08T14:24:24.980Z</time>
</trkpt>
<trkpt lat="45.6508500" lon="8.2002300">
<time>2017-08-08T14:24:24.980Z</time>
</trkpt>
<trkpt lat="45.6509000" lon="8.2002900">
<time>2017-08-08T14:24:24.980Z</time>
</trkpt>
<trkpt lat="45.6510500" lon="8.2004000">
<time>2017-08-08T14:24:24.980Z</time>
</trkpt>
<trkpt lat="45.6509100" lon="8.2003500">
<time>2017-08-08T14:24:24.980Z</time>
</trkpt>
<trkpt lat="45.6508400" lon="8.2004100">
<time>2017-08-08T14:24:24.980Z</time>
</trkpt>
<trkpt lat="45.6508300" lon="8.2004400">
<time>2017-08-08T14:24:24.980Z</time>
</trkpt>
<trkpt lat="45.6508100" lon="8.2004900">
<time>2017-08-08T14:24:24.980Z</time>
</trkpt>
<trkpt lat="45.6508000" lon="8.2005500">
<time>2017-08-08T14:24:24.980Z</time>
</trkpt>
<trkpt lat="45.6507900" lon="8.2006600">
<time>2017-08-08T14:24:24.980Z</time>
</trkpt>
<trkpt lat="45.6507800" lon="8.2007000">
<time>2017-08-08T14:24:24.981Z</time>
</trkpt>
<trkpt lat="45.6507700" lon="8.2007400">
<time>2017-08-08T14:24:24.981Z</time>
</trkpt>
<trkpt lat="45.6507700" lon="8.2008000">
<time>2017-08-08T14:24:24.981Z</time>
</trkpt>
<trkpt lat="45.6507900" lon="8.2008900">
<time>2017-08-08T14:24:24.981Z</time>
</trkpt>
<trkpt lat="45.6508100" lon="8.2009800">
<time>2017-08-08T14:24:24.981Z</time>
</trkpt>
<trkpt lat="45.6507000" lon="8.2010200">
<time>2017-08-08T14:24:24.981Z</time>
</trkpt>
<trkpt lat="45.6506100" lon="8.2011400">
<time>2017-08-08T14:24:24.981Z</time>
</trkpt>
<trkpt lat="45.6505500" lon="8.2012300">
<time>2017-08-08T14:24:24.981Z</time>
</trkpt>
<trkpt lat="45.6505100" lon="8.2013000">
<time>2017-08-08T14:24:24.981Z</time>
</trkpt>
<trkpt lat="45.6506100" lon="8.2014500">
<time>2017-08-08T14:24:24.981Z</time>
</trkpt>
<trkpt lat="45.6506400" lon="8.2014800">
<time>2017-08-08T14:24:24.982Z</time>
</trkpt>
<trkpt lat="45.6505100" lon="8.2016200">
<time>2017-08-08T14:24:24.982Z</time>
</trkpt>
<trkpt lat="45.6504800" lon="8.2016900">
<time>2017-08-08T14:24:24.982Z</time>
</trkpt>
<trkpt lat="45.6504900" lon="8.2017800">
<time>2017-08-08T14:24:24.982Z</time>
</trkpt>
<trkpt lat="45.6505000" lon="8.2018400">
<time>2017-08-08T14:24:24.982Z</time>
</trkpt>
<trkpt lat="45.6505400" lon="8.2019700">
<time>2017-08-08T14:24:24.982Z</time>
</trkpt>
<trkpt lat="45.6505800" lon="8.2020400">
<time>2017-08-08T14:24:24.982Z</time>
</trkpt>
<trkpt lat="45.6505900" lon="8.2020600">
<time>2017-08-08T14:24:24.982Z</time>
</trkpt>
<trkpt lat="45.6506000" lon="8.2020600">
<time>2017-08-08T14:24:24.982Z</time>
</trkpt>
<trkpt lat="45.6506200" lon="8.2021100">
<time>2017-08-08T14:24:24.982Z</time>
</trkpt>
<trkpt lat="45.6505900" lon="8.2022100">
<time>2017-08-08T14:24:24.982Z</time>
</trkpt>
<trkpt lat="45.6505700" lon="8.2022200">
<time>2017-08-08T14:24:24.983Z</time>
</trkpt>
<trkpt lat="45.6505300" lon="8.2022300">
<time>2017-08-08T14:24:24.983Z</time>
</trkpt>
<trkpt lat="45.6504200" lon="8.2023700">
<time>2017-08-08T14:24:24.983Z</time>
</trkpt>
<trkpt lat="45.6504000" lon="8.2024600">
<time>2017-08-08T14:24:24.983Z</time>
</trkpt>
<trkpt lat="45.6503800" lon="8.2025100">
<time>2017-08-08T14:24:24.983Z</time>
</trkpt>
<trkpt lat="45.6503800" lon="8.2025700">
<time>2017-08-08T14:24:24.983Z</time>
</trkpt>
<trkpt lat="45.6503300" lon="8.2025600">
<time>2017-08-08T14:24:24.983Z</time>
</trkpt>
<trkpt lat="45.6502800" lon="8.2025200">
<time>2017-08-08T14:24:24.983Z</time>
</trkpt>
<trkpt lat="45.6502400" lon="8.2024700">
<time>2017-08-08T14:24:24.983Z</time>
</trkpt>
<trkpt lat="45.6502000" lon="8.2023200">
<time>2017-08-08T14:24:24.983Z</time>
</trkpt>
<trkpt lat="45.6501700" lon="8.2022000">
<time>2017-08-08T14:24:24.984Z</time>
</trkpt>
<trkpt lat="45.6500900" lon="8.2020900">
<time>2017-08-08T14:24:24.984Z</time>
</trkpt>
<trkpt lat="45.6500500" lon="8.2019900">
<time>2017-08-08T14:24:24.984Z</time>
</trkpt>
<trkpt lat="45.6500000" lon="8.2019700">
<time>2017-08-08T14:24:24.984Z</time>
</trkpt>
<trkpt lat="45.6498900" lon="8.2019200">
<time>2017-08-08T14:24:24.984Z</time>
</trkpt>
<trkpt lat="45.6498300" lon="8.2018800">
<time>2017-08-08T14:24:24.984Z</time>
</trkpt>
<trkpt lat="45.6497500" lon="8.2018700">
<time>2017-08-08T14:24:24.984Z</time>
</trkpt>
<trkpt lat="45.6497200" lon="8.2019300">
<time>2017-08-08T14:24:24.984Z</time>
</trkpt>
<trkpt lat="45.6496900" lon="8.2020200">
<time>2017-08-08T14:24:24.984Z</time>
</trkpt>
<trkpt lat="45.6496000" lon="8.2019800">
<time>2017-08-08T14:24:24.984Z</time>
</trkpt>
<trkpt lat="45.6495400" lon="8.2019600">
<time>2017-08-08T14:24:24.984Z</time>
</trkpt>
<trkpt lat="45.6495300" lon="8.2019600">
<time>2017-08-08T14:24:24.985Z</time>
</trkpt>
<trkpt lat="45.6494200" lon="8.2019700">
<time>2017-08-08T14:24:24.985Z</time>
</trkpt>
<trkpt lat="45.6493200" lon="8.2019500">
<time>2017-08-08T14:24:24.985Z</time>
</trkpt>
<trkpt lat="45.6491800" lon="8.2020000">
<time>2017-08-08T14:24:24.985Z</time>
</trkpt>
<trkpt lat="45.6491200" lon="8.2021400">
<time>2017-08-08T14:24:24.985Z</time>
</trkpt>
<trkpt lat="45.6490800" lon="8.2022000">
<time>2017-08-08T14:24:24.985Z</time>
</trkpt>
<trkpt lat="45.6489900" lon="8.2022200">
<time>2017-08-08T14:24:24.985Z</time>
</trkpt>
<trkpt lat="45.6489400" lon="8.2022000">
<time>2017-08-08T14:24:24.985Z</time>
</trkpt>
<trkpt lat="45.6488600" lon="8.2020100">
<time>2017-08-08T14:24:24.985Z</time>
</trkpt>
<trkpt lat="45.6488500" lon="8.2019400">
<time>2017-08-08T14:24:24.985Z</time>
</trkpt>
<trkpt lat="45.6487800" lon="8.2018500">
<time>2017-08-08T14:24:24.985Z</time>
</trkpt>
<trkpt lat="45.6486000" lon="8.2018700">
<time>2017-08-08T14:24:24.986Z</time>
</trkpt>
<trkpt lat="45.6485100" lon="8.2018400">
<time>2017-08-08T14:24:24.986Z</time>
</trkpt>
<trkpt lat="45.6484200" lon="8.2018000">
<time>2017-08-08T14:24:24.986Z</time>
</trkpt>
<trkpt lat="45.6482800" lon="8.2018400">
<time>2017-08-08T14:24:24.986Z</time>
</trkpt>
<trkpt lat="45.6482200" lon="8.2018500">
<time>2017-08-08T14:24:24.986Z</time>
</trkpt>
<trkpt lat="45.6481400" lon="8.2018300">
<time>2017-08-08T14:24:24.986Z</time>
</trkpt>
<trkpt lat="45.6481100" lon="8.2018300">
<time>2017-08-08T14:24:24.986Z</time>
</trkpt>
<trkpt lat="45.6480600" lon="8.2018900">
<time>2017-08-08T14:24:24.986Z</time>
</trkpt>
<trkpt lat="45.6478900" lon="8.2019300">
<time>2017-08-08T14:24:24.986Z</time>
</trkpt>
<trkpt lat="45.6478700" lon="8.2020000">
<time>2017-08-08T14:24:24.986Z</time>
</trkpt>
<trkpt lat="45.6480400" lon="8.2021400">
<time>2017-08-08T14:24:24.987Z</time>
</trkpt>
<trkpt lat="45.6480800" lon="8.2022100">
<time>2017-08-08T14:24:24.987Z</time>
</trkpt>
<trkpt lat="45.6481400" lon="8.2023400">
<time>2017-08-08T14:24:24.987Z</time>
</trkpt>
<trkpt lat="45.6481800" lon="8.2024000">
<time>2017-08-08T14:24:24.987Z</time>
</trkpt>
<trkpt lat="45.6482200" lon="8.2024100">
<time>2017-08-08T14:24:24.987Z</time>
</trkpt>
<trkpt lat="45.6483300" lon="8.2024900">
<time>2017-08-08T14:24:24.987Z</time>
</trkpt>
<trkpt lat="45.6483600" lon="8.2025400">
<time>2017-08-08T14:24:24.987Z</time>
</trkpt>
<trkpt lat="45.6484200" lon="8.2025900">
<time>2017-08-08T14:24:24.987Z</time>
</trkpt>
<trkpt lat="45.6484600" lon="8.2027600">
<time>2017-08-08T14:24:24.987Z</time>
</trkpt>
<trkpt lat="45.6484400" lon="8.2028500">
<time>2017-08-08T14:24:24.987Z</time>
</trkpt>
<trkpt lat="45.6484200" lon="8.2029100">
<time>2017-08-08T14:24:24.987Z</time>
</trkpt>
<trkpt lat="45.6483800" lon="8.2030100">
<time>2017-08-08T14:24:24.988Z</time>
</trkpt>
<trkpt lat="45.6483400" lon="8.2030600">
<time>2017-08-08T14:24:24.988Z</time>
</trkpt>
<trkpt lat="45.6483100" lon="8.2031400">
<time>2017-08-08T14:24:24.988Z</time>
</trkpt>
<trkpt lat="45.6482700" lon="8.2032400">
<time>2017-08-08T14:24:24.988Z</time>
</trkpt>
<trkpt lat="45.6482500" lon="8.2033100">
<time>2017-08-08T14:24:24.988Z</time>
</trkpt>
<trkpt lat="45.6482200" lon="8.2033800">
<time>2017-08-08T14:24:24.988Z</time>
</trkpt>
<trkpt lat="45.6482100" lon="8.2034600">
<time>2017-08-08T14:24:24.988Z</time>
</trkpt>
<trkpt lat="45.6482100" lon="8.2035200">
<time>2017-08-08T14:24:24.988Z</time>
</trkpt>
<trkpt lat="45.6482000" lon="8.2036300">
<time>2017-08-08T14:24:24.988Z</time>
</trkpt>
<trkpt lat="45.6481900" lon="8.2037100">
<time>2017-08-08T14:24:24.989Z</time>
</trkpt>
<trkpt lat="45.6482000" lon="8.2038200">
<time>2017-08-08T14:24:24.989Z</time>
</trkpt>
<trkpt lat="45.6481900" lon="8.2039500">
<time>2017-08-08T14:24:24.989Z</time>
</trkpt>
<trkpt lat="45.6482000" lon="8.2040400">
<time>2017-08-08T14:24:24.989Z</time>
</trkpt>
<trkpt lat="45.6482100" lon="8.2041000">
<time>2017-08-08T14:24:24.989Z</time>
</trkpt>
<trkpt lat="45.6482500" lon="8.2042700">
<time>2017-08-08T14:24:24.989Z</time>
</trkpt>
<trkpt lat="45.6483000" lon="8.2043500">
<time>2017-08-08T14:24:24.989Z</time>
</trkpt>
<trkpt lat="45.6483000" lon="8.2045100">
<time>2017-08-08T14:24:24.989Z</time>
</trkpt>
<trkpt lat="45.6483100" lon="8.2045400">
<time>2017-08-08T14:24:24.989Z</time>
</trkpt>
<trkpt lat="45.6482800" lon="8.2046900">
<time>2017-08-08T14:24:24.989Z</time>
</trkpt>
<trkpt lat="45.6483600" lon="8.2049000">
<time>2017-08-08T14:24:24.990Z</time>
</trkpt>
<trkpt lat="45.6483800" lon="8.2049900">
<time>2017-08-08T14:24:24.990Z</time>
</trkpt>
<trkpt lat="45.6484100" lon="8.2051500">
<time>2017-08-08T14:24:24.990Z</time>
</trkpt>
<trkpt lat="45.6484200" lon="8.2052100">
<time>2017-08-08T14:24:24.990Z</time>
</trkpt>
<trkpt lat="45.6483600" lon="8.2052900">
<time>2017-08-08T14:24:24.990Z</time>
</trkpt>
<trkpt lat="45.6483700" lon="8.2054300">
<time>2017-08-08T14:24:24.990Z</time>
</trkpt>
<trkpt lat="45.6484100" lon="8.2056000">
<time>2017-08-08T14:24:24.990Z</time>
</trkpt>
<trkpt lat="45.6484300" lon="8.2056800">
<time>2017-08-08T14:24:24.990Z</time>
</trkpt>
<trkpt lat="45.6484800" lon="8.2058200">
<time>2017-08-08T14:24:24.990Z</time>
</trkpt>
<trkpt lat="45.6484800" lon="8.2058600">
<time>2017-08-08T14:24:24.990Z</time>
</trkpt>
<trkpt lat="45.6484800" lon="8.2059400">
<time>2017-08-08T14:24:24.990Z</time>
</trkpt>
<trkpt lat="45.6484900" lon="8.2059800">
<time>2017-08-08T14:24:24.991Z</time>
</trkpt>
<trkpt lat="45.6485000" lon="8.2060500">
<time>2017-08-08T14:24:24.991Z</time>
</trkpt>
<trkpt lat="45.6485400" lon="8.2061300">
<time>2017-08-08T14:24:24.991Z</time>
</trkpt>
<trkpt lat="45.6486000" lon="8.2062100">
<time>2017-08-08T14:24:24.991Z</time>
</trkpt>
<trkpt lat="45.6486700" lon="8.2062700">
<time>2017-08-08T14:24:24.991Z</time>
</trkpt>
<trkpt lat="45.6486900" lon="8.2062600">
<time>2017-08-08T14:24:24.991Z</time>
</trkpt>
<trkpt lat="45.6487500" lon="8.2062800">
<time>2017-08-08T14:24:24.991Z</time>
</trkpt>
<trkpt lat="45.6488200" lon="8.2063000">
<time>2017-08-08T14:24:24.991Z</time>
</trkpt>
<trkpt lat="45.6489000" lon="8.2063600">
<time>2017-08-08T14:24:24.991Z</time>
</trkpt>
<trkpt lat="45.6489700" lon="8.2062100">
<time>2017-08-08T14:24:24.991Z</time>
</trkpt>
<trkpt lat="45.6493100" lon="8.2059500">
<time>2017-08-08T14:24:24.992Z</time>
</trkpt>
<trkpt lat="45.6494100" lon="8.2060000">
<time>2017-08-08T14:24:24.992Z</time>
</trkpt>
<trkpt lat="45.6495000" lon="8.2061300">
<time>2017-08-08T14:24:24.992Z</time>
</trkpt>
<trkpt lat="45.6495500" lon="8.2062100">
<time>2017-08-08T14:24:24.992Z</time>
</trkpt>
<trkpt lat="45.6496000" lon="8.2062100">
<time>2017-08-08T14:24:24.992Z</time>
</trkpt>
<trkpt lat="45.6496100" lon="8.2062100">
<time>2017-08-08T14:24:24.992Z</time>
</trkpt>
<trkpt lat="45.6497000" lon="8.2062200">
<time>2017-08-08T14:24:24.992Z</time>
</trkpt>
<trkpt lat="45.6497500" lon="8.2062300">
<time>2017-08-08T14:24:24.992Z</time>
</trkpt>
<trkpt lat="45.6498400" lon="8.2062700">
<time>2017-08-08T14:24:24.992Z</time>
</trkpt>
<trkpt lat="45.6499000" lon="8.2063400">
<time>2017-08-08T14:24:24.992Z</time>
</trkpt>
<trkpt lat="45.6503100" lon="8.2063300">
<time>2017-08-08T14:24:24.992Z</time>
</trkpt>
<trkpt lat="45.6503900" lon="8.2063500">
<time>2017-08-08T14:24:24.993Z</time>
</trkpt>
<trkpt lat="45.6504200" lon="8.2063900">
<time>2017-08-08T14:24:24.993Z</time>
</trkpt>
<trkpt lat="45.6505400" lon="8.2064300">
<time>2017-08-08T14:24:24.993Z</time>
</trkpt>
<trkpt lat="45.6505500" lon="8.2064300">
<time>2017-08-08T14:24:24.993Z</time>
</trkpt>
<trkpt lat="45.6505900" lon="8.2064600">
<time>2017-08-08T14:24:24.993Z</time>
</trkpt>
<trkpt lat="45.6506900" lon="8.2065300">
<time>2017-08-08T14:24:24.993Z</time>
</trkpt>
<trkpt lat="45.6507300" lon="8.2065300">
<time>2017-08-08T14:24:24.993Z</time>
</trkpt>
<trkpt lat="45.6508000" lon="8.2065300">
<time>2017-08-08T14:24:24.993Z</time>
</trkpt>
<trkpt lat="45.6508500" lon="8.2065500">
<time>2017-08-08T14:24:24.993Z</time>
</trkpt>
<trkpt lat="45.6509000" lon="8.2065700">
<time>2017-08-08T14:24:24.993Z</time>
</trkpt>
<trkpt lat="45.6509700" lon="8.2065600">
<time>2017-08-08T14:24:24.994Z</time>
</trkpt>
<trkpt lat="45.6510300" lon="8.2066200">
<time>2017-08-08T14:24:24.994Z</time>
</trkpt>
<trkpt lat="45.6510500" lon="8.2066100">
<time>2017-08-08T14:24:24.994Z</time>
</trkpt>
<trkpt lat="45.6510800" lon="8.2066000">
<time>2017-08-08T14:24:24.994Z</time>
</trkpt>
<trkpt lat="45.6512000" lon="8.2065600">
<time>2017-08-08T14:24:24.994Z</time>
</trkpt>
<trkpt lat="45.6512100" lon="8.2066300">
<time>2017-08-08T14:24:24.994Z</time>
</trkpt>
<trkpt lat="45.6512400" lon="8.2066800">
<time>2017-08-08T14:24:24.994Z</time>
</trkpt>
<trkpt lat="45.6513000" lon="8.2067800">
<time>2017-08-08T14:24:24.994Z</time>
</trkpt>
<trkpt lat="45.6513400" lon="8.2068200">
<time>2017-08-08T14:24:24.994Z</time>
</trkpt>
<trkpt lat="45.6513900" lon="8.2069000">
<time>2017-08-08T14:24:24.994Z</time>
</trkpt>
<trkpt lat="45.6514600" lon="8.2069900">
<time>2017-08-08T14:24:24.994Z</time>
</trkpt>
<trkpt lat="45.6515400" lon="8.2070900">
<time>2017-08-08T14:24:24.995Z</time>
</trkpt>
<trkpt lat="45.6516000" lon="8.2072200">
<time>2017-08-08T14:24:24.995Z</time>
</trkpt>
<trkpt lat="45.6515900" lon="8.2073200">
<time>2017-08-08T14:24:24.995Z</time>
</trkpt>
<trkpt lat="45.6515600" lon="8.2073900">
<time>2017-08-08T14:24:24.995Z</time>
</trkpt>
<trkpt lat="45.6515100" lon="8.2074600">
<time>2017-08-08T14:24:24.995Z</time>
</trkpt>
<trkpt lat="45.6513700" lon="8.2075600">
<time>2017-08-08T14:24:24.995Z</time>
</trkpt>
<trkpt lat="45.6512900" lon="8.2076000">
<time>2017-08-08T14:24:24.995Z</time>
</trkpt>
<trkpt lat="45.6511900" lon="8.2076900">
<time>2017-08-08T14:24:24.995Z</time>
</trkpt>
<trkpt lat="45.6511500" lon="8.2077600">
<time>2017-08-08T14:24:24.995Z</time>
</trkpt>
<trkpt lat="45.6511100" lon="8.2079000">
<time>2017-08-08T14:24:24.995Z</time>
</trkpt>
<trkpt lat="45.6511100" lon="8.2080000">
<time>2017-08-08T14:24:24.996Z</time>
</trkpt>
<trkpt lat="45.6511500" lon="8.2081600">
<time>2017-08-08T14:24:24.996Z</time>
</trkpt>
<trkpt lat="45.6512200" lon="8.2082600">
<time>2017-08-08T14:24:24.996Z</time>
</trkpt>
<trkpt lat="45.6512700" lon="8.2083300">
<time>2017-08-08T14:24:24.996Z</time>
</trkpt>
<trkpt lat="45.6513800" lon="8.2084400">
<time>2017-08-08T14:24:24.996Z</time>
</trkpt>
<trkpt lat="45.6515000" lon="8.2085400">
<time>2017-08-08T14:24:24.996Z</time>
</trkpt>
<trkpt lat="45.6516500" lon="8.2086600">
<time>2017-08-08T14:24:24.996Z</time>
</trkpt>
<trkpt lat="45.6517500" lon="8.2086800">
<time>2017-08-08T14:24:24.996Z</time>
</trkpt>
<trkpt lat="45.6519500" lon="8.2086900">
<time>2017-08-08T14:24:24.996Z</time>
</trkpt>
<trkpt lat="45.6520400" lon="8.2086900">
<time>2017-08-08T14:24:24.996Z</time>
</trkpt>
<trkpt lat="45.6521100" lon="8.2087000">
<time>2017-08-08T14:24:24.997Z</time>
</trkpt>
<trkpt lat="45.6522000" lon="8.2087100">
<time>2017-08-08T14:24:24.997Z</time>
</trkpt>
<trkpt lat="45.6522700" lon="8.2087600">
<time>2017-08-08T14:24:24.997Z</time>
</trkpt>
<trkpt lat="45.6525000" lon="8.2087300">
<time>2017-08-08T14:24:24.997Z</time>
</trkpt>
<trkpt lat="45.6525700" lon="8.2089300">
<time>2017-08-08T14:24:24.997Z</time>
</trkpt>
<trkpt lat="45.6527900" lon="8.2089300">
<time>2017-08-08T14:24:24.997Z</time>
</trkpt>
<trkpt lat="45.6529000" lon="8.2089000">
<time>2017-08-08T14:24:24.997Z</time>
</trkpt>
<trkpt lat="45.6529600" lon="8.2090700">
<time>2017-08-08T14:24:24.997Z</time>
</trkpt>
<trkpt lat="45.6529900" lon="8.2092100">
<time>2017-08-08T14:24:24.998Z</time>
</trkpt>
<trkpt lat="45.6530200" lon="8.2093700">
<time>2017-08-08T14:24:24.998Z</time>
</trkpt>
<trkpt lat="45.6529900" lon="8.2095600">
<time>2017-08-08T14:24:24.998Z</time>
</trkpt>
<trkpt lat="45.6530100" lon="8.2097600">
<time>2017-08-08T14:24:24.998Z</time>
</trkpt>
<trkpt lat="45.6530100" lon="8.2098100">
<time>2017-08-08T14:24:24.998Z</time>
</trkpt>
<trkpt lat="45.6530300" lon="8.2098900">
<time>2017-08-08T14:24:24.998Z</time>
</trkpt>
<trkpt lat="45.6530300" lon="8.2099700">
<time>2017-08-08T14:24:24.998Z</time>
</trkpt>
<trkpt lat="45.6531200" lon="8.2101200">
<time>2017-08-08T14:24:24.998Z</time>
</trkpt>
<trkpt lat="45.6531600" lon="8.2102400">
<time>2017-08-08T14:24:24.998Z</time>
</trkpt>
<trkpt lat="45.6532000" lon="8.2103900">
<time>2017-08-08T14:24:24.998Z</time>
</trkpt>
<trkpt lat="45.6532100" lon="8.2105600">
<time>2017-08-08T14:24:24.999Z</time>
</trkpt>
<trkpt lat="45.6531900" lon="8.2106400">
<time>2017-08-08T14:24:24.999Z</time>
</trkpt>
<trkpt lat="45.6532100" lon="8.2107400">
<time>2017-08-08T14:24:24.999Z</time>
</trkpt>
<trkpt lat="45.6532100" lon="8.2109400">
<time>2017-08-08T14:24:24.999Z</time>
</trkpt>
<trkpt lat="45.6532300" lon="8.2111500">
<time>2017-08-08T14:24:24.999Z</time>
</trkpt>
<trkpt lat="45.6532600" lon="8.2113300">
<time>2017-08-08T14:24:24.999Z</time>
</trkpt>
<trkpt lat="45.6532800" lon="8.2114600">
<time>2017-08-08T14:24:24.999Z</time>
</trkpt>
<trkpt lat="45.6533500" lon="8.2115900">
<time>2017-08-08T14:24:24.999Z</time>
</trkpt>
<trkpt lat="45.6533800" lon="8.2116600">
<time>2017-08-08T14:24:24.999Z</time>
</trkpt>
<trkpt lat="45.6534100" lon="8.2117400">
<time>2017-08-08T14:24:24.999Z</time>
</trkpt>
<trkpt lat="45.6534500" lon="8.2118400">
<time>2017-08-08T14:24:24.999Z</time>
</trkpt>
<trkpt lat="45.6534900" lon="8.2119600">
<time>2017-08-08T14:24:25.000Z</time>
</trkpt>
<trkpt lat="45.6535100" lon="8.2120300">
<time>2017-08-08T14:24:25.000Z</time>
</trkpt>
<trkpt lat="45.6535300" lon="8.2121600">
<time>2017-08-08T14:24:25.000Z</time>
</trkpt>
<trkpt lat="45.6535900" lon="8.2123800">
<time>2017-08-08T14:24:25.000Z</time>
</trkpt>
<trkpt lat="45.6536200" lon="8.2125100">
<time>2017-08-08T14:24:25.000Z</time>
</trkpt>
<trkpt lat="45.6536300" lon="8.2126800">
<time>2017-08-08T14:24:25.000Z</time>
</trkpt>
<trkpt lat="45.6536500" lon="8.2128300">
<time>2017-08-08T14:24:25.000Z</time>
</trkpt>
<trkpt lat="45.6536600" lon="8.2129100">
<time>2017-08-08T14:24:25.000Z</time>
</trkpt>
<trkpt lat="45.6536500" lon="8.2130100">
<time>2017-08-08T14:24:25.000Z</time>
</trkpt>
<trkpt lat="45.6536500" lon="8.2130800">
<time>2017-08-08T14:24:25.000Z</time>
</trkpt>
<trkpt lat="45.6536600" lon="8.2132400">
<time>2017-08-08T14:24:25.001Z</time>
</trkpt>
<trkpt lat="45.6536400" lon="8.2133400">
<time>2017-08-08T14:24:25.001Z</time>
</trkpt>
<trkpt lat="45.6535800" lon="8.2133800">
<time>2017-08-08T14:24:25.001Z</time>
</trkpt>
<trkpt lat="45.6535700" lon="8.2135400">
<time>2017-08-08T14:24:25.001Z</time>
</trkpt>
<trkpt lat="45.6535100" lon="8.2140900">
<time>2017-08-08T14:24:25.001Z</time>
</trkpt>
</trkseg>
</trk>
</gpx>
